GFSNE_925_thetae_120.txt.gz
Theta_e
324 324 325 325 325 325 325 324 324 325 324 325 323 324 323 321 321 320 320 321 318 317 316 313 314 315 315 314 311 310 308 307 305 303 303 303 304 304
324 324 324 324 324 323 324 323 323 323 324 323 322 322 321 320 320 320 319 319 318 316 315 311 312 313 313 311 309 307 306 304 303 302 302 302 302 302
324 324 324 323 323 322 323 323 322 321 321 320 319 320 319 318 319 318 317 317 316 316 313 310 310 311 310 308 306 306 305 303 301 301 300 300 300 299
317 316 315 315 315 315 316 317 318 318 318 318 317 317 317 317 316 314 314 314 313 313 311 309 309 308 306 305 305 304 302 301 301 299 298 298 298 297
307 307 308 308 309 310 310 310 310 311 312 314 314 313 313 314 313 310 309 310 310 311 309 308 307 306 306 304 303 301 300 299 297 296 296 296 295 297
304 304 304 305 305 305 306 306 307 308 308 309 310 310 309 308 306 305 304 305 305 306 306 306 306 305 304 302 302 301 299 299 296 295 295 294 293 296
301 301 301 300 300 301 302 304 304 305 306 306 307 308 305 303 304 306 303 304 302 304 304 304 303 304 303 302 301 301 299 297 295 293 293 293 294 295
299 299 299 298 298 299 299 300 300 301 303 304 305 305 305 305 305 305 304 302 301 302 300 300 302 302 302 302 301 301 299 297 294 293 292 292 293 295
297 297 297 297 297 297 297 298 299 300 300 301 302 303 304 305 306 304 303 302 304 305 301 300 299 299 300 300 300 299 298 295 293 291 291 292 292 293
293 293 293 294 295 295 295 296 296 298 298 299 300 300 300 301 304 305 304 303 301 302 299 300 296 296 295 297 298 297 295 293 292 290 291 291 291 292
292 292 291 292 292 292 292 292 293 294 295 297 297 298 299 299 300 302 301 299 297 296 297 296 292 293 292 292 293 294 294 293 291 289 290 290 291 289
291 291 291 290 290 291 291 291 291 292 293 294 296 297 298 299 299 299 301 298 297 293 295 294 290 291 289 290 290 291 292 292 290 289 289 288 290 289
290 290 290 289 290 290 290 290 291 291 292 294 295 296 297 297 298 298 299 299 297 296 297 294 292 291 291 287 288 290 291 291 289 288 287 286 290 289
289 288 288 289 289 289 289 289 290 291 292 293 294 294 295 296 296 296 296 297 297 297 297 294 292 291 288 287 288 288 289 289 288 287 286 286 289 288
288 288 288 287 287 287 287 288 288 289 291 292 293 293 294 294 293 293 293 293 294 294 294 293 292 291 289 290 288 287 287 287 286 287 286 285 287 287
288 288 287 286 286 286 286 286 287 288 289 291 292 292 292 292 292 291 290 290 290 290 290 290 290 291 289 288 288 287 288 288 286 286 285 285 285 286
288 287 286 285 285 285 285 286 286 287 288 288 290 291 291 290 289 289 289 289 289 286 285 285 287 288 287 287 287 288 287 286 286 285 285 285 284 285
287 286 285 285 285 285 285 285 285 286 287 287 288 290 290 289 289 288 287 288 289 287 286 284 284 285 285 284 286 286 286 285 285 284 285 285 284 284
285 285 285 284 284 284 284 284 285 285 286 286 287 289 289 289 288 287 287 288 289 288 286 285 285 287 288 289 284 285 285 284 283 283 284 286 286 284
285 284 284 284 283 283 283 284 284 285 285 286 287 287 289 289 288 287 287 288 288 287 286 285 286 287 289 288 286 283 284 283 284 284 284 285 284 284
284 283 283 282 282 282 282 282 282 283 284 285 286 287 288 288 288 287 287 287 287 286 286 286 286 286 287 285 285 283 282 284 284 284 284 285 285 285
282 281 281 281 280 280 280 280 281 282 283 283 285 286 287 288 288 288 287 287 287 286 286 285 284 285 285 287 286 283 283 283 284 284 285 285 286 288
281 281 280 280 280 279 279 280 281 281 282 282 284 286 287 288 288 288 287 286 287 286 284 284 284 284 284 284 285 284 283 283 283 284 284 284 285 286

GFSNE_925_thetae_123.txt.gz
Theta_e
324 323 323 323 324 324 324 324 324 325 324 324 323 324 324 324 323 322 321 321 320 320 320 320 319 318 318 317 317 317 316 313 311 309 307 306 306 306
321 323 323 323 323 324 324 323 323 324 324 323 323 323 322 322 321 320 320 319 319 319 319 319 318 318 316 315 316 316 314 310 310 307 305 305 305 305
324 323 323 323 323 322 322 322 322 322 321 321 320 319 318 318 318 317 318 318 318 317 317 317 318 317 315 313 315 314 311 309 307 304 304 304 303 303
313 314 313 313 313 312 313 313 313 313 314 315 315 315 315 315 314 315 315 315 315 315 316 315 315 314 312 312 313 311 309 306 304 303 303 301 301 300
307 307 307 307 307 307 308 308 308 308 309 309 310 310 311 311 311 310 311 312 312 313 311 310 311 311 311 311 311 309 306 304 303 303 302 300 299 298
303 303 303 303 302 302 303 304 305 305 305 305 306 306 306 306 306 305 305 306 306 307 308 309 308 310 310 309 308 306 304 303 302 302 301 300 297 296
300 300 300 298 298 298 300 300 300 300 301 302 303 304 303 304 304 304 304 304 305 305 305 305 305 307 308 307 306 304 304 302 301 299 300 298 295 295
299 298 298 298 297 298 298 297 297 298 298 298 299 300 300 302 303 304 305 305 304 305 304 303 303 303 305 306 305 304 302 300 300 298 298 296 294 294
295 295 295 295 295 295 294 294 295 296 296 297 298 298 299 299 299 300 301 303 304 304 303 301 303 301 302 303 304 303 302 300 298 297 295 294 292 293
293 293 293 293 293 292 292 292 292 292 292 293 294 295 296 297 297 298 299 300 301 302 302 299 301 300 299 300 300 301 301 299 297 295 295 292 291 291
293 292 292 292 291 291 291 291 291 291 291 292 292 292 293 295 296 298 298 298 299 299 299 298 298 295 295 296 297 297 296 297 295 293 292 291 290 289
291 291 291 291 290 290 290 290 290 290 291 291 292 292 294 294 296 296 296 297 298 295 298 295 294 293 292 291 293 294 294 295 293 292 291 290 289 290
290 290 290 289 290 289 289 289 289 289 289 291 292 292 293 293 294 294 295 295 295 296 297 296 292 291 292 289 289 290 291 292 292 291 290 287 287 290
290 290 289 289 288 288 288 288 288 288 288 288 289 291 292 292 293 293 293 293 293 293 295 296 294 292 290 288 288 289 290 291 290 289 288 287 287 288
289 289 289 288 288 287 287 287 287 287 287 287 288 289 291 291 291 291 291 291 290 292 293 293 293 292 291 289 288 288 289 289 289 288 287 286 288 287
289 289 288 287 287 286 286 286 286 286 286 287 287 287 288 290 290 290 289 289 289 289 290 290 290 290 289 289 288 288 288 288 288 287 286 286 285 287
288 288 287 286 286 285 285 285 285 285 286 286 286 287 288 289 289 289 289 288 288 289 287 286 287 288 288 288 288 288 288 287 286 286 285 285 285 286
287 287 287 286 285 285 285 284 284 284 285 285 286 286 287 288 289 289 288 288 288 289 287 285 285 286 286 286 287 287 287 286 286 285 285 285 284 285
286 286 286 285 285 284 284 283 284 284 284 284 285 286 287 287 289 289 288 288 288 289 288 286 285 287 288 288 284 286 286 285 284 285 286 286 284 285
285 285 285 284 283 283 282 282 282 282 283 283 284 285 286 287 288 289 288 288 289 289 287 286 286 288 289 288 285 283 285 284 284 285 285 285 285 286
284 284 283 282 282 281 281 281 280 281 282 282 283 284 285 286 288 288 288 288 288 288 287 287 287 287 288 286 284 283 284 285 284 284 284 284 285 285
282 282 282 282 281 281 280 280 280 280 281 281 282 283 284 286 287 288 289 288 288 288 287 286 286 286 286 287 284 283 283 284 284 285 286 286 286 285
282 282 282 281 281 280 280 279 279 280 280 281 281 282 283 285 286 287 288 288 287 287 286 285 284 285 286 286 284 283 283 284 284 285 285 285 286 287

GFSNE_925_thetae_126.txt.gz
Theta_e
327 327 326 325 324 323 323 321 321 323 323 323 323 323 323 323 323 322 321 320 319 319 319 320 320 320 320 321 322 319 318 320 318 315 313 311 309 308
326 323 322 322 323 323 323 323 324 323 324 323 323 323 322 321 319 317 317 316 316 316 317 317 317 317 318 319 319 318 318 318 317 315 313 310 309 308
322 322 321 323 323 322 321 319 319 319 319 319 316 316 315 313 313 313 312 312 312 312 312 313 314 315 315 316 317 317 317 317 315 314 310 309 308 307
314 314 312 311 311 310 310 309 309 308 309 310 309 309 308 309 308 308 308 308 308 308 309 310 310 311 312 313 314 315 315 315 314 312 309 307 306 305
307 307 306 306 305 304 304 304 304 304 304 304 305 304 305 304 303 304 303 303 304 303 305 305 305 306 307 310 311 313 314 313 313 311 307 305 303 302
302 302 301 299 299 298 299 299 299 299 299 300 300 300 301 301 302 303 303 303 303 304 304 303 304 304 304 306 309 312 312 311 310 308 305 303 302 301
299 299 298 298 297 298 298 297 297 297 297 297 298 298 298 298 298 300 300 300 299 301 303 303 304 304 305 304 306 310 310 309 308 306 304 303 301 300
297 296 297 295 296 297 296 295 295 295 295 296 296 297 297 297 297 298 297 297 298 298 299 300 300 302 303 303 304 305 307 308 306 304 302 299 298 297
294 294 294 293 293 293 292 291 291 292 293 293 293 293 293 293 295 295 296 297 297 298 298 298 299 300 301 302 302 303 303 306 304 302 300 298 296 296
293 293 292 292 292 291 291 290 290 290 290 291 291 292 292 292 293 294 295 296 296 296 297 297 298 299 300 300 301 301 301 303 303 301 299 299 297 295
292 292 291 291 291 291 290 289 289 289 290 290 290 291 292 293 294 294 294 294 294 294 296 297 297 297 297 298 299 298 299 301 300 299 298 297 294 292
291 291 291 290 290 290 290 289 289 289 289 289 289 289 290 292 292 292 293 294 293 294 296 295 296 295 295 294 296 296 296 298 298 297 295 292 292 291
290 290 289 290 290 289 289 288 288 289 288 287 287 288 289 290 292 291 292 292 292 292 293 293 294 293 292 292 290 293 292 293 295 294 292 291 290 289
289 289 289 289 289 288 288 288 288 287 286 286 286 287 287 288 289 290 291 291 290 290 291 292 293 293 291 289 289 290 290 291 291 291 290 289 287 288
289 289 289 289 288 287 287 287 286 285 285 286 286 286 286 286 288 289 290 290 289 289 290 291 291 291 291 291 289 288 289 289 289 289 289 287 287 287
288 288 288 288 287 286 285 285 285 284 285 285 285 285 285 286 287 288 289 289 288 289 289 289 290 290 289 289 289 288 289 288 288 288 287 286 286 288
288 288 287 287 286 285 285 284 284 283 284 284 284 285 285 286 287 288 289 288 287 288 288 287 286 287 288 288 288 288 288 288 287 287 286 285 286 287
287 287 286 286 285 285 284 283 283 283 283 283 284 284 285 286 287 287 288 288 288 288 288 287 285 286 286 286 287 287 287 287 286 286 285 284 285 286
287 286 285 285 284 284 283 282 282 282 281 281 282 283 284 285 286 287 287 288 288 288 288 288 285 286 285 286 285 286 286 286 286 286 285 285 285 285
285 285 284 284 283 282 281 281 281 281 280 281 282 282 282 283 285 286 288 288 288 288 288 287 285 286 286 284 284 284 285 285 285 285 285 286 286 286
284 284 283 282 282 281 281 281 280 280 281 281 281 281 282 282 284 286 287 288 289 288 287 287 287 286 287 286 284 284 285 285 285 285 284 285 285 285
283 282 282 282 281 281 280 280 280 279 279 280 280 280 281 282 283 284 286 287 288 287 288 287 286 287 286 285 283 283 284 285 285 285 286 286 285 284
283 282 282 282 281 281 280 280 280 279 279 279 279 280 280 281 282 283 285 287 287 287 287 285 285 286 286 284 283 283 284 284 285 285 285 286 287 287

GFSNE_925_thetae_129.txt.gz
Theta_e
326 326 326 326 326 326 325 323 321 321 320 321 322 323 323 323 321 319 318 317 317 316 314 313 313 313 314 316 318 319 320 321 321 320 321 319 317 315
326 326 326 325 324 323 323 323 322 321 323 323 321 319 317 316 314 313 312 312 312 311 311 311 311 311 311 312 313 315 317 318 319 319 320 318 315 313
324 324 321 321 321 318 319 317 314 314 313 314 312 310 309 308 308 307 306 305 304 302 303 304 304 305 307 308 309 312 314 315 316 317 319 318 315 313
315 312 313 313 311 310 309 307 307 307 307 308 307 306 303 303 303 302 302 302 301 301 302 302 303 303 303 304 305 309 311 312 313 315 319 316 313 312
307 308 307 307 306 304 303 302 301 300 301 301 301 300 299 298 298 299 298 299 300 300 300 301 301 301 303 304 304 304 306 309 311 313 316 315 312 310
301 300 299 298 298 298 298 297 297 297 297 297 297 297 297 296 297 297 298 298 298 296 296 297 299 300 300 301 301 302 303 304 309 312 312 313 311 308
298 297 297 297 298 297 296 295 295 295 295 295 295 295 296 296 296 296 295 295 296 295 295 297 296 297 297 298 298 300 301 302 305 310 310 310 309 306
296 295 294 295 295 295 294 292 293 293 293 292 292 292 292 292 292 293 293 292 293 294 296 295 297 297 297 297 298 300 300 302 303 305 308 306 303 303
293 293 293 293 292 292 291 290 290 290 291 291 291 291 291 291 291 291 292 292 293 294 294 295 295 295 296 297 297 298 299 301 302 303 305 305 303 301
292 292 291 291 292 291 291 290 289 289 289 290 290 290 290 290 291 293 294 293 293 293 294 294 294 295 296 296 297 298 298 298 299 301 303 304 302 300
291 291 291 291 291 291 290 289 289 289 288 289 289 289 289 290 291 292 292 292 292 293 293 293 294 295 295 296 297 297 297 298 297 300 302 302 299 297
290 290 290 290 291 291 290 289 288 288 288 288 287 287 287 288 289 290 291 291 291 292 294 293 293 293 294 295 296 296 295 296 296 301 301 298 295 294
289 289 289 289 290 290 289 288 288 288 287 286 286 286 286 287 286 287 288 289 289 290 290 290 291 291 292 292 293 294 293 293 294 297 296 294 293 292
290 289 289 289 290 289 288 288 288 287 285 285 285 286 286 285 286 286 287 289 289 288 289 289 287 289 291 292 290 292 292 289 290 292 292 291 291 290
290 289 289 289 289 287 286 286 285 284 284 285 285 285 285 285 286 286 287 289 289 289 289 289 288 288 288 290 290 290 289 288 288 290 289 289 288 287
288 288 288 288 287 286 285 284 284 283 284 284 284 284 284 284 285 286 286 287 288 287 288 288 288 287 287 288 289 288 288 288 287 288 288 287 286 287
288 288 287 286 286 285 284 284 283 282 283 283 282 283 284 284 284 285 286 287 288 287 287 288 287 286 286 287 287 288 288 287 287 287 286 285 286 287
287 287 286 286 285 285 284 283 282 282 282 281 281 282 282 283 283 285 286 286 288 287 287 288 287 285 286 286 286 287 287 286 286 286 285 285 285 287
286 286 285 285 284 283 283 282 281 281 280 280 280 281 282 282 282 283 285 286 287 286 287 288 287 285 283 285 285 285 286 286 285 285 285 285 285 287
285 284 284 284 283 283 282 281 281 280 280 280 281 281 281 281 281 282 283 285 287 287 287 287 287 286 284 285 284 284 285 286 285 285 285 286 286 287
284 283 283 282 282 281 281 281 280 280 280 279 279 279 280 280 280 281 282 284 287 287 287 287 287 287 286 286 284 284 285 285 285 285 286 285 285 286
284 283 282 282 282 281 281 280 280 280 280 280 279 278 279 279 279 280 281 282 284 287 287 287 286 286 285 285 283 284 284 285 285 285 285 285 285 284
284 283 283 282 282 281 281 281 280 280 279 279 278 278 278 278 279 280 280 281 283 286 287 286 285 285 285 284 284 284 285 285 286 286 287 286 286 285

GFSNE_925_thetae_132.txt.gz
Theta_e
324 326 325 326 326 325 324 325 325 325 321 320 320 321 321 321 321 320 319 317 315 313 311 309 308 309 309 308 309 311 313 314 317 320 320 321 321 322
324 324 324 325 325 325 325 323 322 321 322 320 317 315 314 312 310 311 308 307 306 304 302 300 302 302 303 303 304 305 307 309 313 316 317 319 320 321
322 322 324 323 324 321 320 319 317 317 317 314 312 310 308 307 304 303 302 302 301 301 300 300 301 301 303 304 304 305 305 306 307 311 313 315 317 320
312 314 316 315 310 312 310 309 308 306 308 308 307 305 302 298 297 297 297 296 297 298 298 297 296 296 300 303 303 303 304 303 303 305 308 312 313 316
308 305 303 305 306 303 303 301 301 300 299 300 299 299 297 296 295 296 296 296 295 294 295 294 293 297 299 298 300 299 298 298 300 302 304 307 311 314
301 302 298 298 298 297 296 296 296 296 296 296 296 296 295 295 295 294 293 292 292 292 293 294 296 296 295 297 296 296 297 299 300 302 302 304 310 312
297 297 298 297 296 296 295 294 293 293 293 293 293 293 292 292 291 291 292 291 292 293 294 293 293 293 293 294 295 296 297 298 299 300 301 303 307 310
295 295 294 294 293 293 292 291 292 291 291 291 291 290 290 290 290 290 290 291 292 292 292 292 293 294 294 294 295 296 297 298 299 299 300 302 304 308
293 293 292 292 292 291 290 290 289 289 290 290 290 290 290 289 290 290 291 292 293 292 292 293 293 293 294 294 295 295 296 297 297 298 299 299 301 304
292 291 291 291 292 291 290 289 289 288 289 289 289 289 289 289 289 290 291 290 290 291 292 292 292 293 294 293 295 296 296 295 295 296 297 298 300 301
290 291 291 290 291 291 290 289 288 288 288 288 288 288 288 288 288 289 290 290 290 290 290 291 292 292 292 293 295 295 295 294 295 295 298 300 300 303
289 289 290 291 291 291 290 289 288 288 288 287 286 286 286 286 287 286 286 287 288 290 291 290 290 291 291 292 294 293 293 293 293 293 297 300 301 299
289 289 289 290 290 290 289 288 288 289 287 285 285 285 285 285 285 285 285 286 287 288 288 289 289 288 290 291 292 292 292 291 291 291 293 296 296 296
290 290 289 290 289 289 288 287 287 286 285 284 284 284 284 284 284 285 285 285 286 287 288 288 287 287 288 288 290 291 290 290 289 289 290 291 292 292
289 289 289 288 288 288 286 286 285 284 283 283 284 284 283 283 284 284 285 285 286 287 287 288 287 287 285 287 288 289 289 288 288 289 289 288 289 289
288 288 288 288 287 286 286 285 284 283 283 283 283 282 281 282 283 283 284 285 286 287 287 287 287 287 285 286 286 286 287 287 288 288 288 287 286 287
288 287 286 286 286 285 285 284 283 282 282 282 281 281 281 281 282 282 283 284 286 287 286 287 287 287 286 285 285 286 286 287 287 287 286 286 286 286
288 287 286 285 285 285 284 283 282 282 281 281 280 280 281 281 281 281 281 282 284 286 286 286 287 287 286 286 285 285 286 286 286 286 286 285 285 286
287 286 286 284 284 284 283 282 281 281 281 280 280 280 280 280 281 280 280 281 283 285 286 287 287 285 279 280 286 285 285 285 285 285 285 285 285 287
286 285 284 283 283 283 282 282 281 281 280 280 280 279 279 279 279 279 280 281 282 284 286 287 287 286 282 282 284 285 284 285 285 285 285 285 286 287
286 285 284 283 282 282 281 281 281 280 280 280 280 279 279 278 279 279 279 281 282 282 284 285 286 286 286 285 283 284 284 285 285 285 285 285 285 287
285 285 283 283 282 282 281 281 280 280 280 280 279 279 278 278 278 278 279 280 280 281 283 285 286 285 285 285 283 284 284 285 285 285 285 285 285 285
285 284 284 283 282 282 281 281 281 281 281 280 279 279 278 277 277 278 278 279 280 281 283 284 285 285 285 284 284 284 285 285 286 286 286 287 286 287

GFSNE_925_thetae_135.txt.gz
Theta_e
326 324 323 324 325 324 324 325 325 325 324 321 321 319 319 319 318 317 316 313 311 311 310 309 307 303 303 303 305 307 307 308 308 310 312 316 318 321
324 324 323 324 324 323 325 323 324 324 324 320 317 314 312 310 308 308 307 305 303 303 302 301 300 300 301 302 304 304 305 307 307 308 309 311 314 318
322 322 321 321 321 320 320 321 320 318 320 314 311 307 305 303 302 300 299 298 297 298 298 299 297 298 298 299 301 303 304 304 305 304 305 306 309 311
313 314 313 312 310 309 309 307 304 305 308 307 304 302 299 297 295 295 295 295 295 294 293 293 294 296 298 299 298 299 300 300 300 300 302 303 305 306
307 307 306 306 303 302 302 300 300 298 299 299 298 297 296 296 293 293 292 292 292 292 292 293 294 295 295 295 296 297 296 296 298 300 301 302 303 304
301 300 299 299 298 297 295 295 295 295 294 294 295 295 293 292 291 291 291 291 291 291 292 293 292 292 293 293 295 294 295 297 298 299 300 301 301 302
298 297 297 296 295 294 293 292 292 292 292 292 292 291 291 290 290 290 290 290 291 292 292 291 291 292 292 293 293 294 296 297 297 298 299 300 300 301
295 294 293 292 293 292 291 291 291 290 290 290 290 290 290 289 289 289 290 290 291 292 291 290 291 291 292 293 293 294 295 296 297 297 297 297 298 299
293 292 292 291 291 290 289 289 289 289 290 289 289 289 289 289 288 289 289 290 291 290 290 290 290 291 292 292 292 293 295 295 295 295 295 295 296 297
291 291 291 291 292 291 290 289 288 288 288 289 288 288 288 288 288 288 289 289 289 289 289 289 290 291 291 291 292 294 294 294 293 293 293 294 296 299
290 290 290 290 291 291 289 288 288 288 288 288 286 286 286 287 287 287 286 286 287 287 288 290 291 289 290 290 292 293 292 292 292 292 292 296 298 300
289 290 290 290 291 291 289 287 288 288 287 286 285 285 285 285 285 285 285 285 286 287 289 288 289 288 288 290 291 290 290 291 290 290 292 292 295 297
289 289 289 290 290 290 289 287 288 288 286 285 284 284 284 284 283 283 284 284 285 286 286 287 288 288 288 289 288 288 289 288 289 289 289 291 291 292
290 289 289 290 289 289 288 288 287 285 284 284 283 283 283 282 282 283 283 284 285 285 286 287 287 287 287 286 287 288 288 288 288 288 288 288 290 290
289 289 288 288 288 287 287 286 285 284 283 283 283 282 281 281 281 282 282 283 284 285 286 287 287 287 286 285 285 286 287 287 287 287 287 288 288 288
288 288 288 287 287 286 286 285 284 283 283 282 281 281 280 281 281 281 281 281 282 284 285 286 286 286 286 285 285 285 285 285 287 287 287 287 287 286
289 288 287 286 285 285 285 284 283 282 282 281 280 280 280 280 280 281 281 280 281 283 284 285 287 286 287 286 284 285 285 284 286 286 286 286 286 285
289 288 287 286 285 284 284 283 282 282 281 280 280 280 279 279 279 280 280 280 281 282 282 283 285 286 286 286 286 285 284 284 285 286 285 284 285 286
288 287 286 285 284 283 283 282 282 281 280 280 280 279 279 279 278 279 279 279 280 280 282 283 285 285 278 278 285 285 284 283 284 285 285 285 284 286
287 286 285 284 283 283 282 282 281 281 280 280 280 280 279 279 277 277 278 278 279 281 282 282 284 285 282 281 282 285 285 284 284 285 285 285 286 289
286 286 285 284 283 282 282 281 281 281 280 280 280 280 279 279 278 277 278 280 281 280 280 281 282 284 285 285 283 284 285 285 285 284 285 285 286 287
287 286 285 284 283 283 282 282 281 281 280 280 281 280 279 278 277 277 277 278 279 279 279 281 283 284 285 284 282 283 284 284 285 285 286 286 285 285
287 286 285 284 283 283 282 282 281 281 281 281 281 280 279 278 278 277 277 278 278 279 280 281 282 284 284 284 284 284 284 285 286 287 286 286 286 287

GFSNE_925_thetae_138.txt.gz
Theta_e
324 325 325 324 324 325 324 324 324 324 323 322 320 316 316 315 312 313 313 309 306 306 306 305 305 303 302 301 303 305 305 305 306 306 308 309 310 312
323 323 324 324 324 324 323 322 323 323 321 320 313 311 309 308 306 305 304 303 303 302 301 299 299 299 299 298 299 301 302 303 304 305 306 306 306 306
319 320 319 319 319 319 318 319 318 315 318 311 308 305 304 303 301 299 298 297 296 295 295 294 294 295 297 298 300 299 299 300 300 301 302 302 303 304
312 313 312 312 312 310 310 306 307 306 306 307 302 299 299 298 295 293 293 293 292 292 292 292 295 296 295 296 296 297 297 297 298 298 299 300 300 302
306 307 305 306 304 302 302 300 298 297 297 298 298 296 296 293 291 291 291 291 291 291 292 293 292 292 294 295 295 296 295 295 297 298 298 299 300 301
300 300 299 299 297 296 295 294 294 294 293 293 293 293 292 291 290 290 290 290 290 291 291 292 291 291 291 293 293 293 294 296 296 297 297 298 298 299
297 296 295 295 294 293 292 291 291 291 291 291 291 290 290 289 289 289 289 289 290 291 291 290 290 290 290 292 292 292 294 295 296 296 297 297 297 297
295 293 293 293 293 292 292 292 291 290 290 290 289 289 289 289 288 288 288 289 289 291 290 289 289 289 290 291 291 292 294 295 296 295 296 296 295 295
293 292 291 291 290 290 289 289 290 290 289 289 289 288 288 288 288 288 288 288 289 289 288 288 288 289 290 290 291 292 293 295 294 294 294 293 293 295
291 291 291 291 291 290 289 288 288 288 289 288 287 287 287 287 288 287 287 286 285 286 286 288 288 289 288 288 290 292 293 292 292 292 292 292 294 295
290 290 290 291 292 290 289 287 288 288 288 287 285 285 286 286 287 286 285 284 285 285 286 288 289 288 288 288 290 292 290 290 290 290 290 290 292 293
290 290 290 290 291 290 289 287 288 288 287 285 285 285 284 284 284 283 283 284 284 285 287 286 287 288 288 288 289 288 288 289 288 289 288 289 290 291
289 289 289 290 290 290 289 287 288 287 285 284 284 284 283 283 282 282 283 283 283 284 285 285 286 287 286 287 287 286 287 286 287 287 288 288 288 290
289 289 289 289 289 289 288 288 287 285 284 284 283 282 282 281 281 281 282 282 282 282 284 285 285 286 286 286 286 287 286 286 286 286 287 287 287 288
290 289 289 288 288 287 287 287 286 284 284 283 282 281 280 280 280 281 281 281 282 283 284 285 286 286 286 286 285 285 286 285 285 286 286 286 286 287
289 288 288 287 287 286 286 285 284 283 283 282 281 280 280 280 280 280 281 280 279 281 282 283 284 284 284 285 285 285 285 285 285 284 284 285 286 286
288 288 287 286 285 285 284 284 284 283 282 281 280 280 279 279 279 279 279 279 280 280 281 283 284 285 286 286 284 284 285 285 284 284 284 284 286 285
289 289 288 287 286 285 284 284 283 282 281 281 280 280 279 279 279 279 279 279 278 280 280 281 282 283 284 285 286 285 285 284 283 283 284 284 284 286
290 289 288 287 285 284 283 283 282 281 281 280 280 279 279 279 279 278 278 278 277 279 280 281 281 282 280 278 284 285 285 284 283 283 283 285 283 287
289 288 287 286 285 284 283 282 282 281 280 280 280 280 280 279 279 278 277 277 278 280 280 280 280 281 282 284 282 284 285 284 284 283 284 285 287 289
288 286 286 285 285 283 283 282 281 281 281 280 281 280 280 279 279 278 277 278 279 278 278 279 280 281 282 284 282 284 285 284 285 284 284 285 285 287
288 287 287 286 285 284 283 282 282 281 281 280 280 281 281 280 279 278 277 276 277 277 278 279 281 282 282 283 282 283 284 284 285 285 286 286 286 285
289 288 288 286 285 284 283 282 282 281 281 281 281 281 281 280 279 278 277 277 277 277 278 278 280 281 283 283 284 284 284 284 285 287 286 286 286 286

GFSNE_925_thetae_141.txt.gz
Theta_e
320 321 322 324 324 325 326 324 322 323 323 321 317 315 315 314 313 312 311 307 306 305 306 306 306 304 304 303 302 301 302 304 305 306 306 307 307 308
317 318 319 322 323 324 324 323 323 323 323 319 312 309 307 308 306 305 304 302 303 300 299 297 296 296 298 298 300 301 302 301 301 302 303 304 305 305
315 316 316 316 316 317 318 319 318 317 318 309 307 303 302 301 300 300 298 298 298 297 295 293 295 297 297 298 298 298 298 298 299 299 300 300 301 301
311 312 311 311 311 309 309 308 308 308 310 307 301 300 299 297 294 293 293 292 292 292 292 294 296 295 294 295 296 296 297 297 297 297 298 299 299 300
307 306 304 306 305 303 303 301 300 299 300 301 298 296 295 293 291 291 290 290 290 291 292 293 292 291 291 291 294 295 294 294 296 297 297 298 298 299
299 299 299 297 297 296 296 295 294 294 294 294 294 292 291 290 290 290 291 290 290 291 291 291 290 290 290 291 293 292 292 294 295 296 297 298 297 297
297 296 295 293 293 292 291 291 291 291 291 291 291 291 291 290 290 289 290 290 291 291 291 290 289 289 289 290 290 292 293 294 295 297 296 296 296 296
294 293 293 293 293 293 292 292 290 290 291 291 290 290 289 289 289 289 289 289 291 290 289 288 288 289 289 290 290 291 292 293 296 295 295 294 294 294
292 291 291 290 290 289 289 290 291 290 289 289 289 289 288 288 288 288 288 288 288 287 286 288 288 289 290 289 289 290 292 294 293 293 293 293 292 293
291 291 291 291 290 289 288 288 288 289 288 287 286 286 287 287 287 287 287 286 286 286 286 287 289 289 287 288 289 291 292 290 290 291 291 291 291 291
290 290 291 291 291 290 288 287 288 288 288 287 285 285 286 286 287 285 285 285 286 286 286 287 287 287 287 288 289 290 289 288 289 289 289 290 289 290
290 290 290 290 291 290 289 287 288 287 287 285 285 284 284 284 284 283 283 284 284 285 287 285 286 286 287 288 287 287 287 287 287 287 288 288 288 288
289 290 290 290 290 290 289 287 288 287 285 284 284 283 283 282 282 282 282 282 282 283 284 285 286 286 287 287 286 286 286 287 286 286 287 286 287 288
288 288 289 289 290 289 289 288 288 287 284 284 283 283 282 281 281 281 281 281 281 281 282 282 283 285 286 286 286 286 286 286 286 285 285 285 286 287
289 289 289 289 289 288 287 288 287 285 284 283 283 282 281 280 281 281 281 281 282 283 283 283 283 283 284 285 285 285 286 286 285 285 285 284 284 285
290 289 289 288 288 287 286 286 285 284 283 282 282 280 280 280 280 279 280 279 280 282 282 282 282 282 283 284 284 285 285 285 285 285 284 283 284 285
291 289 288 287 286 285 285 285 284 283 282 282 281 280 279 279 279 279 278 279 279 280 281 282 282 282 283 284 283 285 285 285 285 284 283 283 284 285
289 287 287 287 286 286 285 284 283 283 282 281 281 280 279 279 279 279 278 277 278 279 280 280 280 281 283 284 284 285 285 285 285 284 283 283 284 287
290 288 288 288 287 286 285 284 283 282 282 281 280 280 279 279 278 278 278 277 278 279 280 280 280 281 283 284 284 285 285 285 284 283 284 284 285 286
290 289 289 288 287 286 284 283 283 282 281 281 280 280 280 279 278 278 277 276 277 280 280 279 279 280 281 282 283 283 285 284 284 284 284 284 285 287
289 289 289 288 287 285 284 283 282 282 281 281 280 280 280 279 279 279 277 278 279 278 278 279 280 280 281 281 283 284 284 284 284 284 285 285 286 287
289 289 288 287 286 285 284 283 282 282 281 281 280 280 280 280 279 279 277 277 277 278 278 278 280 280 280 283 283 283 283 284 285 286 286 286 286 287
289 289 288 287 287 286 284 283 282 282 282 281 281 281 281 280 280 278 277 277 277 277 278 278 279 280 281 282 283 284 284 284 286 286 286 286 286 286

GFSNE_925_thetae_144.txt.gz
Theta_e
317 318 318 319 319 322 325 326 325 324 324 322 314 313 314 314 312 312 311 309 309 307 307 308 310 308 307 307 308 308 306 302 303 304 305 305 306 307
316 317 317 318 320 321 322 324 324 322 323 315 308 306 307 309 307 305 304 304 304 303 303 304 302 298 298 299 299 301 301 301 300 301 302 303 303 303
313 313 314 314 316 317 318 318 318 318 321 307 304 303 304 302 301 301 300 300 298 297 297 294 295 297 297 297 297 298 298 298 299 300 300 300 301 301
309 310 309 310 309 309 310 310 311 312 313 307 301 299 300 297 296 295 294 293 291 291 291 294 296 295 295 293 295 296 297 297 297 297 298 298 299 300
304 304 304 304 303 304 304 303 302 302 306 305 299 297 296 294 292 291 291 291 292 292 291 293 293 292 292 292 294 295 294 294 295 296 297 297 298 299
300 299 298 299 298 298 297 297 297 299 299 299 297 293 292 291 291 291 292 293 292 293 292 292 291 290 290 291 291 291 291 293 295 295 296 298 298 297
296 295 294 293 293 293 294 292 293 294 294 294 294 293 293 293 292 291 291 291 292 293 293 292 291 291 292 291 292 292 292 293 294 295 297 297 296 295
296 295 294 294 293 293 293 291 292 293 293 294 293 293 292 291 291 291 291 292 294 292 290 289 290 291 292 292 291 290 291 292 295 294 294 294 294 294
294 293 292 290 290 291 290 291 291 289 291 292 292 291 291 290 290 291 291 291 290 290 288 290 290 291 292 290 290 290 291 293 292 291 291 292 292 292
293 293 293 292 291 290 290 290 290 290 289 289 289 289 289 289 289 289 289 288 288 289 288 289 290 290 289 289 290 290 292 290 290 290 290 290 290 291
292 292 292 292 291 290 290 290 290 290 288 286 286 286 286 286 286 287 287 287 289 289 288 287 288 288 288 290 290 289 289 289 289 289 289 289 290 290
291 291 290 291 292 290 290 289 290 290 289 287 286 286 285 285 284 284 285 286 285 287 287 286 287 287 287 288 289 288 288 288 289 289 289 288 289 288
291 291 291 290 291 291 290 289 289 289 287 286 286 286 285 284 284 284 283 284 284 284 285 284 284 285 286 287 287 287 288 288 288 288 288 287 287 287
290 290 290 289 291 290 290 289 289 288 286 286 286 286 285 284 283 283 282 283 283 283 283 283 282 283 284 285 286 287 287 287 287 287 286 286 286 286
289 289 289 289 290 290 289 288 289 287 286 286 286 285 283 282 281 282 282 282 282 283 283 282 282 283 283 284 285 285 286 286 286 286 286 285 285 284
289 290 289 290 290 289 288 288 288 286 286 286 285 284 282 282 282 281 281 282 282 284 284 283 282 282 282 283 284 285 285 286 286 286 285 284 284 284
291 290 290 290 289 288 287 286 286 286 285 285 284 283 282 282 282 281 281 281 282 283 283 283 283 282 282 283 283 284 286 286 286 285 285 285 284 285
292 290 290 289 289 288 288 287 286 285 285 284 283 282 281 282 281 282 281 281 281 282 283 283 282 282 283 285 285 285 286 286 286 285 285 284 285 285
292 291 290 289 289 288 288 287 286 285 284 283 282 281 281 281 281 281 281 282 281 281 282 282 282 282 283 285 285 285 285 285 285 285 285 284 285 285
292 291 290 290 289 288 287 286 286 284 284 283 282 281 281 280 280 281 281 281 281 281 282 282 282 282 281 282 283 282 284 284 285 285 285 285 285 286
292 291 290 290 289 288 287 286 285 284 283 283 282 281 281 280 280 281 281 281 281 281 281 282 282 281 280 280 282 285 285 285 285 284 285 286 287 287
291 291 290 289 289 288 287 285 284 284 283 283 282 282 281 280 280 280 280 280 280 280 280 280 281 281 281 283 283 284 284 285 285 286 286 286 286 287
290 290 289 289 289 287 286 285 284 284 283 283 282 282 281 280 280 280 280 280 280 279 280 280 281 282 282 283 284 284 285 285 286 286 287 287 286 287

GFSNE_925_thetae_147.txt.gz
Theta_e
316 316 316 318 318 318 319 320 322 325 324 318 312 311 312 311 310 310 310 310 311 312 312 312 309 308 306 307 307 309 308 305 305 303 303 303 304 305
315 316 315 316 316 317 318 319 321 322 323 314 307 306 306 307 307 308 306 305 306 306 306 307 304 302 300 299 299 299 299 300 300 301 302 302 303 303
311 312 312 313 312 314 314 316 317 317 320 307 305 303 304 304 303 303 302 302 301 302 295 294 295 297 297 297 297 297 298 298 299 299 300 300 300 301
309 310 308 308 308 308 308 308 309 310 313 309 303 301 301 298 298 296 294 293 292 292 291 291 295 295 293 293 294 294 296 297 296 297 297 298 299 299
303 303 302 304 304 303 302 302 302 303 307 306 300 298 297 295 293 292 292 292 292 292 293 293 293 293 293 292 293 294 295 294 294 295 296 297 297 299
299 298 298 297 297 298 297 297 297 299 300 300 298 295 294 291 293 293 293 293 293 294 294 293 293 293 292 293 293 292 292 293 293 294 295 297 298 298
296 295 294 293 292 293 295 294 293 293 294 295 295 295 294 294 292 292 292 292 293 293 293 291 291 290 292 292 292 292 291 292 292 294 295 295 295 295
297 295 294 294 293 293 292 291 294 295 295 295 294 294 293 292 292 292 292 292 293 293 290 289 291 292 292 292 292 291 291 291 293 293 293 293 293 293
295 294 292 291 292 292 291 291 289 291 293 293 293 292 292 291 291 291 292 291 291 290 289 290 291 291 291 290 290 291 291 292 291 291 291 291 291 291
295 294 293 293 291 291 291 291 291 290 290 290 290 290 290 290 290 289 289 289 289 290 289 289 290 289 288 288 290 290 290 291 290 290 290 291 291 290
293 293 293 293 292 290 291 290 291 290 288 287 286 286 286 286 286 286 288 287 289 289 288 287 288 287 287 288 290 290 289 289 289 289 290 290 290 289
292 292 292 292 293 290 291 290 290 291 289 287 287 287 286 286 285 285 285 286 286 287 287 285 286 285 285 287 288 287 287 288 289 289 289 289 289 288
292 292 292 290 291 292 290 290 290 290 289 287 287 287 286 285 285 284 284 284 284 284 285 284 284 284 285 286 286 286 286 287 286 287 288 287 287 288
291 291 291 291 291 291 291 290 289 288 287 287 287 287 286 285 285 283 283 283 283 283 283 283 283 283 283 284 285 285 284 285 286 286 286 286 286 286
291 291 291 290 290 291 290 290 289 288 288 287 287 287 285 284 282 283 282 282 283 283 284 283 282 282 282 283 283 283 284 285 285 286 285 285 285 285
290 290 290 289 290 290 290 288 288 289 287 287 287 286 284 283 283 283 282 282 282 284 284 284 283 283 282 282 282 282 283 284 285 286 285 285 285 285
291 290 290 290 290 289 288 288 288 288 286 286 285 284 283 283 283 283 282 281 282 282 283 283 283 283 282 283 283 284 284 285 285 285 285 285 285 285
292 291 291 290 290 290 288 288 287 287 286 286 284 283 282 282 282 282 282 282 282 282 282 282 282 282 282 283 285 285 285 285 285 285 285 285 285 285
293 292 291 291 290 289 289 288 287 286 286 285 284 283 282 281 281 281 281 281 282 282 282 282 282 282 282 282 282 284 284 283 283 285 285 285 285 285
293 292 291 291 290 289 289 288 287 286 285 284 283 282 281 281 281 281 281 281 281 281 281 282 282 283 282 281 281 281 283 284 284 285 285 285 285 286
292 292 291 291 290 290 289 288 287 286 285 284 283 282 281 281 280 280 281 281 282 281 281 281 281 281 281 281 282 283 283 284 284 285 285 285 286 286
291 291 291 291 290 290 289 288 287 286 285 284 283 282 282 281 280 280 280 281 281 281 280 280 280 281 281 282 282 283 283 284 285 285 286 286 286 286
291 291 291 291 290 290 289 288 287 285 285 284 283 282 282 281 280 280 281 280 280 280 279 280 280 280 281 282 283 284 284 284 285 285 286 286 287 287

GFSNE_925_thetae_150.txt.gz
Theta_e
316 315 316 316 316 317 318 319 320 320 320 313 311 309 310 309 310 312 310 309 310 310 311 308 308 307 307 306 305 303 303 303 303 303 303 304 305 306
312 312 312 313 313 314 314 316 317 318 320 312 306 305 305 306 306 305 306 306 307 307 306 302 302 300 299 299 299 298 298 299 300 301 302 303 303 303
310 309 309 309 309 309 311 312 311 312 317 307 305 303 303 303 302 303 304 303 301 297 294 292 295 296 296 294 294 294 295 298 298 299 299 300 300 301
306 307 307 306 306 306 307 306 306 307 309 309 303 301 300 299 298 296 294 293 292 293 293 293 294 295 295 295 295 295 296 296 296 296 297 297 298 299
303 302 302 303 302 302 303 301 302 302 306 306 300 299 297 295 293 292 293 293 293 293 293 293 293 294 294 294 294 294 294 293 294 295 295 296 297 298
300 299 298 298 298 297 296 296 297 299 300 300 298 295 293 292 293 291 292 292 293 293 292 291 290 291 291 293 293 292 292 292 293 293 294 296 296 297
297 295 293 292 292 294 294 293 292 293 294 294 294 295 293 292 291 292 292 292 293 291 291 289 290 291 291 292 292 292 292 292 292 293 294 294 294 294
297 295 294 294 292 291 290 291 294 294 294 293 293 292 292 291 291 291 292 291 289 292 289 289 291 291 291 291 291 290 292 291 292 292 292 292 292 292
296 295 293 291 291 291 291 290 290 292 292 293 292 291 291 290 290 290 290 289 289 288 289 289 290 289 288 287 288 291 290 292 291 291 291 291 291 291
295 294 293 293 291 291 291 291 291 290 289 290 290 290 290 290 290 288 288 288 288 289 289 288 288 287 287 287 290 290 290 290 290 290 290 290 290 290
294 294 293 293 293 290 291 290 291 290 288 287 287 286 286 286 285 286 286 287 287 288 287 287 286 285 286 288 289 290 289 288 288 289 289 289 289 289
294 293 293 293 293 290 291 290 290 290 289 288 287 287 286 286 285 285 285 286 285 285 286 286 284 283 283 286 287 286 285 286 286 286 287 288 288 287
293 293 292 292 293 291 290 290 290 290 289 288 287 287 286 286 285 285 284 284 284 284 284 284 283 283 284 284 284 284 284 284 284 285 286 286 287 287
292 292 292 292 291 292 291 290 289 289 289 287 287 287 287 286 285 285 283 283 283 283 283 283 282 282 282 283 283 284 283 283 284 285 285 285 285 286
292 292 291 291 291 292 291 291 290 289 288 287 287 287 286 286 284 283 283 282 282 282 284 284 283 283 282 282 282 282 283 283 284 285 285 285 285 285
292 291 291 291 291 291 291 291 290 289 288 288 287 287 286 285 283 283 283 282 281 283 283 283 283 283 283 282 282 282 282 283 284 285 285 285 285 285
294 291 290 290 290 290 291 290 289 288 288 287 286 286 285 283 282 282 282 282 281 282 282 282 282 282 282 282 282 282 283 284 285 285 284 284 285 285
292 290 289 289 289 290 290 289 288 288 288 287 286 285 284 283 282 282 282 282 282 282 282 282 281 282 282 282 282 283 283 283 283 283 284 284 285 284
293 291 290 289 289 289 289 289 288 287 287 286 286 285 284 282 282 282 281 281 281 281 281 281 281 281 282 282 282 282 282 282 282 282 284 284 284 284
294 292 291 290 290 290 289 289 288 288 287 286 285 284 283 282 281 281 281 281 281 280 281 281 281 281 281 281 281 281 282 282 283 283 284 285 285 285
292 293 292 291 290 290 290 289 289 288 287 286 284 284 283 282 281 280 280 281 282 282 281 280 280 280 280 280 281 282 282 283 284 284 285 285 286 286
291 292 292 291 290 291 290 289 289 288 287 286 285 283 283 282 281 280 280 280 280 280 280 279 279 279 280 281 281 282 283 283 284 285 285 285 286 286
291 290 291 291 291 291 290 289 289 288 287 286 285 283 283 282 281 281 280 280 280 280 280 280 279 279 280 281 282 282 283 283 284 285 284 286 287 287

GFSNE_925_thetae_156.txt.gz
Theta_e
311 311 311 312 311 311 311 312 314 314 317 311 308 306 307 307 308 310 310 308 313 313 312 311 309 308 308 306 305 304 303 302 303 303 304 305 305 306
308 309 309 309 309 309 310 310 310 311 315 309 305 304 305 305 305 305 305 305 299 303 305 304 300 297 297 297 297 297 297 300 300 301 301 302 302 302
306 306 307 307 307 307 306 307 307 307 311 309 305 302 303 303 302 300 299 298 299 295 295 298 297 296 296 296 296 296 297 297 297 297 298 299 300 300
304 304 304 304 304 304 303 303 303 304 307 310 304 303 301 299 297 296 295 294 293 295 295 295 295 295 294 295 295 294 293 293 295 295 296 296 297 298
303 302 302 302 301 300 299 299 299 300 303 306 302 300 298 295 294 294 292 292 293 293 292 291 292 293 293 294 294 292 292 293 294 294 294 295 296 297
302 301 299 299 298 298 297 295 294 297 299 302 299 296 295 293 292 291 291 292 292 291 289 289 289 290 293 292 292 292 292 293 293 293 294 294 294 294
301 300 297 295 293 291 293 293 292 292 293 294 293 293 292 291 291 291 291 292 292 291 289 290 291 291 290 290 291 290 290 292 292 293 292 292 292 292
299 299 296 294 293 292 290 292 292 293 292 292 291 291 290 290 290 290 290 289 287 290 289 289 290 289 288 287 287 291 291 292 291 291 291 291 291 291
298 299 297 295 293 291 291 291 291 292 292 292 291 291 290 290 290 289 288 288 287 288 288 288 289 288 287 288 290 291 291 290 290 290 290 291 291 290
296 298 297 296 293 291 291 291 290 289 290 291 291 290 290 290 289 288 287 287 287 288 287 287 287 287 286 290 291 289 288 288 288 287 288 288 289 289
295 296 296 295 294 292 291 290 290 289 288 289 289 289 288 288 287 286 286 286 285 287 286 286 285 285 285 289 289 287 286 286 286 286 287 287 288 288
296 294 295 295 294 293 292 290 290 290 288 288 287 287 286 286 286 286 286 285 285 284 286 285 284 284 283 285 286 286 285 285 284 284 285 286 286 286
295 295 293 294 294 293 293 292 290 290 289 288 287 287 286 286 286 285 285 285 285 284 284 284 283 283 282 283 283 284 284 284 284 284 284 284 285 286
295 295 294 293 293 293 293 293 291 290 289 289 287 286 286 286 286 285 285 284 284 284 284 283 283 282 281 281 282 283 282 283 283 283 283 283 284 284
296 295 294 294 292 293 293 293 292 291 289 288 287 287 287 287 286 285 284 283 283 283 282 282 283 283 282 282 282 282 282 282 282 283 282 282 282 283
297 296 295 294 292 292 293 294 293 291 290 289 288 287 287 286 285 285 284 283 282 283 283 282 283 283 283 282 282 281 281 281 282 282 282 282 282 283
296 296 295 293 292 292 292 292 293 292 290 289 288 287 286 286 285 284 283 282 282 281 282 282 282 281 281 281 281 282 282 282 282 282 281 281 282 283
294 295 293 292 291 291 291 291 291 291 291 290 289 288 286 285 285 283 283 282 281 281 281 281 281 280 281 282 282 282 282 282 281 281 281 280 281 283
295 294 293 292 291 291 291 290 290 290 290 290 289 288 287 286 284 283 282 282 281 281 281 280 280 280 274 275 280 281 281 281 281 281 281 281 282 283
294 293 292 292 291 290 289 289 290 289 289 288 288 287 287 286 284 283 282 282 281 281 281 281 280 280 279 278 280 280 280 280 281 281 281 282 283 284
294 293 293 292 291 290 290 289 289 288 288 288 287 287 287 285 284 283 282 282 281 281 280 280 281 280 280 279 279 279 280 281 282 282 282 283 283 284
294 293 293 292 292 290 290 289 289 288 288 288 287 287 287 286 284 283 282 281 282 282 281 280 280 279 279 279 279 279 279 281 282 283 284 284 284 284
293 293 292 291 291 291 290 289 289 289 288 288 287 286 286 284 284 283 282 281 281 280 280 280 280 279 279 279 280 280 280 280 281 282 285 285 286 286

GFSNE_925_thetae_159.txt.gz
Theta_e
308 309 310 310 310 310 310 310 312 313 312 311 309 308 307 307 308 308 309 305 302 304 307 309 309 308 306 303 305 306 304 303 304 304 304 305 306 306
308 308 308 308 308 308 308 309 309 310 312 310 308 308 306 304 304 303 302 302 303 299 299 298 297 296 295 296 297 298 300 300 300 301 301 302 302 303
306 305 304 305 306 306 306 306 306 305 308 310 307 306 305 305 302 301 299 297 296 296 296 296 295 294 293 293 292 292 292 293 296 298 298 299 299 300
305 304 303 303 304 304 304 303 303 303 303 307 306 304 303 301 299 297 295 294 295 296 296 296 295 294 295 295 294 293 292 294 294 294 295 296 297 298
304 303 301 301 301 301 300 300 299 300 301 303 305 302 301 297 295 294 292 293 293 292 291 290 292 293 293 295 293 292 292 294 294 294 295 295 296 296
303 302 300 299 298 297 297 297 295 295 297 299 302 300 297 295 293 292 291 291 292 290 289 289 290 294 294 293 292 292 292 292 292 294 294 293 293 293
302 301 299 298 296 293 292 293 293 292 292 294 295 294 293 293 292 291 290 290 291 291 289 290 291 291 289 289 290 289 289 291 292 292 293 292 292 292
300 299 298 298 295 293 292 291 293 292 291 291 291 291 291 291 290 290 290 288 287 290 288 289 290 289 288 287 288 291 291 291 291 291 291 291 292 292
298 297 297 298 296 294 292 292 292 292 292 291 291 290 290 291 290 289 289 288 287 287 288 288 288 288 287 288 291 291 291 290 289 288 288 288 289 290
297 297 296 296 297 295 293 291 291 290 290 290 291 291 291 290 289 289 288 287 287 287 287 287 287 287 286 290 290 289 289 287 288 287 287 288 288 288
297 296 296 295 296 296 293 291 291 290 289 289 289 289 289 289 289 288 287 286 285 286 287 286 286 285 285 289 289 288 287 285 285 285 286 287 287 287
297 296 296 295 295 295 293 292 290 290 289 289 288 288 287 287 286 286 286 286 285 284 286 285 284 284 284 285 288 286 286 285 284 284 285 285 285 285
296 296 296 295 294 294 294 293 293 292 290 289 288 287 287 286 286 286 285 285 285 285 285 285 284 283 283 283 284 284 284 284 284 284 284 284 284 285
296 296 296 296 295 294 294 294 293 292 290 289 288 287 287 286 286 286 285 285 284 284 284 284 283 283 283 282 282 283 284 283 283 283 283 283 283 284
297 297 296 296 295 293 293 293 294 293 290 288 287 287 288 287 286 285 285 285 284 283 283 283 282 283 283 282 282 282 282 282 282 283 282 282 282 283
295 296 297 296 295 294 293 294 294 293 292 290 288 289 288 286 286 286 285 284 283 283 282 283 283 283 281 282 282 281 281 281 283 282 282 282 283 283
295 294 296 295 294 293 293 293 294 294 291 290 289 288 287 286 285 285 284 284 282 281 282 282 282 282 281 281 281 281 282 281 282 281 281 281 281 282
296 294 294 293 292 292 291 291 292 292 292 290 290 289 287 286 285 284 284 283 282 281 281 281 281 280 281 282 282 281 282 282 281 281 281 280 281 282
297 295 293 293 292 292 291 291 291 291 291 290 290 289 288 287 285 284 283 283 282 281 281 281 280 279 272 275 281 281 281 280 280 280 280 281 280 282
296 295 293 293 292 291 291 291 291 290 290 290 289 289 288 287 285 284 283 282 282 281 281 281 280 280 278 275 279 280 280 280 280 280 280 281 281 282
294 294 294 293 292 292 291 291 290 290 290 289 288 288 287 286 285 285 284 283 282 281 280 280 281 281 280 279 277 278 280 280 281 281 281 281 282 283
293 293 293 293 292 292 291 290 290 289 289 288 288 287 287 287 285 285 284 283 283 281 281 281 281 280 279 279 278 278 279 280 282 283 283 282 283 284
291 291 292 292 292 291 291 290 290 289 289 288 287 287 286 286 285 285 283 283 282 282 281 280 280 279 279 279 279 279 279 279 280 282 285 285 285 285

GFSNE_925_thetae_165.txt.gz
Theta_e
307 307 307 307 307 307 307 307 309 310 310 310 311 309 309 307 307 307 305 300 301 302 301 299 298 300 303 305 306 307 307 307 308 308 308 308 308 308
307 307 307 307 306 305 304 305 305 308 310 309 309 308 308 307 306 304 303 298 299 300 299 298 297 298 300 301 301 301 302 303 303 304 304 304 304 303
306 306 306 306 305 303 302 303 303 303 306 307 306 306 306 305 303 302 299 298 298 296 296 296 297 298 298 298 299 298 298 299 300 300 300 301 301 302
306 305 305 305 304 303 300 301 302 302 302 303 302 303 304 304 302 300 298 295 294 293 291 294 294 296 296 296 296 296 296 295 296 298 299 299 299 299
300 304 305 304 304 303 299 298 299 299 298 298 300 300 301 302 301 299 297 295 293 292 290 290 295 296 296 295 294 292 291 293 295 295 295 295 295 296
300 300 302 304 303 302 299 297 296 296 295 295 296 297 297 298 298 297 296 294 292 292 290 290 293 294 293 292 291 291 290 294 295 294 294 293 293 293
302 300 299 300 302 301 299 297 295 292 292 292 292 293 294 294 295 295 292 291 290 290 291 289 290 290 289 288 288 288 291 293 293 293 293 292 292 293
303 302 300 299 299 300 299 297 296 293 291 290 291 291 291 291 291 291 291 290 292 289 290 289 289 290 290 288 289 291 292 291 291 289 288 288 289 290
303 302 301 300 298 298 297 297 296 295 293 292 291 290 290 290 290 290 289 289 289 288 288 288 288 288 289 287 290 292 291 290 289 287 287 287 288 289
301 301 301 300 299 297 297 296 296 295 294 294 292 291 291 290 290 290 289 289 288 287 287 289 287 287 288 287 290 291 290 289 288 286 286 286 288 288
301 300 300 299 299 297 296 296 295 295 294 293 291 290 289 289 290 289 288 288 289 287 287 287 286 286 286 286 290 290 289 288 287 287 285 285 287 287
299 299 298 298 298 297 296 296 294 294 294 294 291 290 289 289 289 289 288 288 288 288 286 287 285 285 287 285 286 289 289 288 287 285 284 285 285 286
297 298 298 297 297 296 296 296 295 295 294 294 291 290 289 289 289 288 287 286 286 286 286 286 285 284 284 284 284 285 286 286 284 284 283 284 284 285
297 297 297 297 296 296 296 296 296 295 294 292 290 289 289 289 288 287 286 286 285 285 285 285 285 284 284 284 285 284 284 284 284 283 283 283 284 283
296 296 296 296 296 296 296 296 295 296 294 290 289 289 289 289 288 287 286 285 285 285 284 284 284 284 283 284 284 283 284 284 283 283 283 283 283 283
297 297 297 297 296 296 295 295 295 295 294 292 291 290 290 289 288 287 286 285 284 284 284 284 283 283 282 282 282 283 282 283 283 283 282 282 282 282
296 296 296 296 296 296 296 295 294 294 294 293 291 290 289 288 288 287 285 284 284 283 283 283 282 282 282 282 282 282 282 281 282 282 281 281 282 283
295 295 295 295 295 295 294 294 294 293 293 292 291 291 289 289 287 286 284 284 284 284 283 282 282 281 281 282 282 282 281 280 281 281 280 280 281 283
295 295 295 295 294 295 294 293 292 292 292 292 291 290 289 289 287 285 284 284 284 284 284 283 281 281 283 284 282 282 281 281 280 280 280 280 281 282
293 292 292 293 293 293 294 293 292 292 291 291 290 290 289 288 287 285 284 284 284 284 283 282 281 281 282 283 282 281 280 280 279 280 280 281 281 282
291 291 290 290 291 291 292 292 292 291 291 290 290 289 289 288 287 287 285 285 285 284 283 282 282 283 282 280 280 280 280 280 280 280 280 281 282 283
290 290 290 290 289 290 290 291 291 291 290 290 289 289 289 288 288 287 286 286 286 284 284 283 283 282 281 280 281 280 279 280 281 282 282 281 282 284
290 289 289 289 289 288 289 290 290 290 290 290 289 289 289 288 287 287 286 286 286 284 283 282 281 281 280 280 280 279 279 279 280 281 284 284 283 283

GFSNE_925_thetae_168.txt.gz
Theta_e
310 309 309 309 309 309 308 309 309 310 311 310 310 311 310 307 308 305 302 302 301 301 301 300 298 302 304 304 305 307 308 309 310 310 310 311 312 312
309 309 309 309 309 309 308 307 307 308 309 309 309 309 308 307 304 303 302 301 299 299 298 298 297 296 298 301 302 303 303 304 305 306 306 305 305 305
306 308 308 308 308 307 306 305 305 306 306 307 308 306 306 307 305 301 301 299 299 296 293 297 297 298 298 298 297 298 299 301 301 302 302 303 303 303
304 305 306 307 306 306 305 304 303 304 305 305 306 305 303 305 302 301 299 297 296 294 292 292 293 297 297 297 296 296 295 297 299 300 300 300 300 300
304 304 304 305 306 306 305 303 302 301 302 303 304 303 302 302 301 300 299 297 295 294 292 291 296 296 296 295 294 293 294 296 296 295 295 295 296 296
304 304 303 303 303 304 304 303 301 299 299 299 299 299 299 299 297 298 299 296 296 293 291 291 294 295 293 292 291 290 292 295 295 295 294 293 293 294
305 303 303 302 301 301 302 302 299 298 297 296 296 296 296 296 296 297 295 296 294 292 292 291 291 291 291 290 289 288 291 294 293 293 293 291 291 291
303 304 303 301 302 300 299 300 300 298 297 296 295 295 295 294 294 294 294 294 295 291 291 292 290 292 291 289 289 290 293 293 292 290 288 288 288 288
302 302 302 301 301 300 299 299 299 298 297 296 295 295 294 293 293 293 293 293 293 291 289 291 290 290 291 288 289 293 292 291 291 288 287 287 287 288
303 302 302 302 301 299 299 299 298 298 298 297 296 295 294 292 291 292 292 292 291 290 288 291 290 290 290 289 288 292 291 291 290 288 287 286 287 288
301 301 300 300 300 298 298 298 297 297 296 296 296 295 294 291 290 291 291 291 292 291 289 290 291 290 288 289 290 291 291 290 289 287 288 287 285 287
299 299 298 298 298 297 297 298 298 298 297 294 294 294 293 292 290 290 291 291 292 291 290 290 289 288 291 287 287 290 289 289 288 288 288 285 285 286
298 298 298 297 297 297 296 298 298 298 297 296 294 294 293 292 291 291 289 289 290 290 288 287 286 287 287 289 286 286 288 287 287 286 285 284 284 285
298 298 298 297 296 296 296 297 297 297 297 296 294 293 293 292 291 290 289 287 287 286 286 285 286 287 288 288 289 286 285 284 284 284 284 284 284 284
297 297 297 297 297 297 297 297 296 296 297 295 294 293 292 291 290 289 288 286 286 285 285 285 285 285 284 287 288 287 285 286 284 284 284 284 283 284
297 297 297 297 297 296 296 296 295 296 296 295 294 294 292 290 289 288 287 285 285 286 285 284 284 284 284 284 285 285 286 286 284 284 283 283 283 283
295 295 295 295 295 295 295 295 295 294 294 294 294 293 291 290 288 288 287 286 286 287 286 284 284 283 282 283 285 285 285 285 284 283 282 283 282 283
294 295 295 296 295 294 294 294 294 293 293 293 293 292 290 290 289 287 287 286 287 287 286 285 283 283 283 283 283 284 284 284 283 282 282 282 282 283
294 294 293 292 293 293 293 294 293 293 293 292 292 291 291 290 289 288 287 287 287 287 286 285 284 284 286 288 285 284 284 284 283 282 282 282 282 283
294 292 292 292 292 291 292 292 292 292 292 291 291 290 290 290 289 289 288 287 287 287 286 285 284 284 285 287 286 283 282 282 282 281 281 282 282 283
293 291 291 290 290 290 290 290 291 291 291 291 290 290 290 289 289 289 288 287 287 287 287 286 284 284 283 283 282 283 282 282 280 280 281 282 283 284
293 292 291 290 289 289 289 290 290 290 291 290 290 290 290 289 289 289 288 288 287 287 287 286 284 283 281 282 283 283 282 281 280 281 281 281 283 286
292 292 291 290 289 289 289 289 289 290 290 290 290 290 289 289 289 288 288 287 287 287 286 284 283 282 282 282 282 282 281 281 281 282 283 283 283 283

GFSNE_925_thetae_171.txt.gz
Theta_e
310 310 309 309 309 308 309 308 309 309 309 310 310 312 310 308 308 306 304 303 303 301 300 296 296 301 301 303 305 307 309 310 311 311 314 315 314 314
308 310 310 310 309 309 308 308 308 307 307 308 309 309 308 307 307 306 303 303 302 301 297 296 295 295 299 298 300 302 303 305 305 306 307 307 307 307
307 307 308 309 310 309 308 308 308 307 306 306 306 307 306 305 306 305 303 301 301 300 296 294 296 296 296 296 295 294 298 301 303 304 305 305 304 305
307 306 306 307 308 308 308 308 307 306 306 305 305 305 306 303 305 303 302 299 298 297 296 292 292 297 296 296 294 292 294 299 300 300 300 300 301 301
307 307 306 306 306 307 307 307 306 305 303 303 303 303 304 303 303 301 301 300 298 297 296 293 295 296 296 295 293 292 295 297 296 295 295 296 296 297
307 307 306 305 305 305 305 306 306 304 302 301 301 301 300 299 299 298 297 299 298 296 296 293 294 295 294 292 291 290 294 296 295 295 294 293 293 294
306 306 306 305 305 304 304 304 304 303 300 299 299 298 297 296 297 297 297 295 296 295 293 293 291 291 291 291 290 289 290 294 294 294 293 290 289 289
305 305 305 305 304 303 302 301 301 302 299 298 297 297 296 296 295 295 295 295 295 294 292 292 293 292 292 291 290 289 290 293 293 292 289 288 288 288
304 304 303 303 303 302 301 301 300 299 300 299 298 297 296 296 294 294 294 294 294 294 291 291 292 291 292 292 290 289 293 293 292 291 288 287 287 287
303 304 304 303 303 303 301 300 300 300 300 299 298 297 296 295 293 292 292 293 293 293 291 291 292 291 291 291 289 289 293 292 291 290 288 287 287 286
301 301 302 302 301 301 300 299 299 299 299 298 299 298 297 296 294 292 291 291 292 293 291 290 292 290 290 289 289 289 292 292 291 289 288 288 288 286
299 299 299 299 298 298 298 298 298 299 299 298 296 296 295 296 295 293 291 292 292 292 291 289 291 289 291 289 288 290 291 290 290 289 289 289 287 285
299 299 299 299 298 297 296 297 298 298 298 298 297 296 295 294 293 292 291 291 292 292 291 288 288 288 287 289 288 287 290 290 289 288 288 286 285 285
298 298 298 298 297 297 296 297 297 297 297 297 296 295 295 294 293 292 292 291 290 290 289 288 287 287 288 289 289 288 286 285 286 285 285 285 285 285
297 297 297 297 297 297 298 297 297 296 297 297 296 295 295 294 293 292 291 290 289 287 286 286 286 285 285 287 288 287 286 287 286 285 284 284 284 284
295 295 295 295 296 295 296 296 296 295 295 296 296 296 295 294 292 291 289 288 286 286 286 285 285 285 285 285 285 286 286 286 286 284 284 284 284 284
294 294 294 294 295 296 296 295 294 294 294 295 294 294 294 293 292 290 289 287 286 288 286 286 285 285 284 284 285 285 285 286 286 285 285 283 283 284
294 294 294 294 294 294 293 293 293 294 294 293 293 292 292 291 290 290 289 288 287 288 288 286 284 283 283 284 284 284 285 285 285 285 283 283 283 286
295 295 294 293 293 292 292 292 292 292 293 293 293 292 291 291 290 289 288 288 288 288 288 287 285 285 286 286 286 285 284 285 285 284 283 282 282 284
296 295 294 292 292 291 291 291 291 290 291 292 291 291 291 290 290 289 289 288 288 288 288 287 285 285 286 287 288 285 284 284 284 283 282 282 282 282
293 294 294 292 291 291 290 290 290 290 290 291 291 291 291 290 289 289 289 289 289 288 288 287 286 286 286 285 284 284 284 284 283 282 281 281 282 283
292 292 293 292 292 291 290 289 289 289 290 290 290 290 290 290 289 289 289 289 289 288 288 288 287 285 284 284 284 284 283 283 282 281 281 281 282 282
290 290 291 292 292 291 290 289 289 289 289 289 290 290 290 289 289 289 289 289 288 288 288 286 285 284 283 283 283 283 282 282 282 282 282 283 283 283

GFSNE_925_thetae_174.txt.gz
Theta_e
307 309 310 310 308 307 307 308 309 308 305 308 310 310 310 308 307 306 306 305 303 302 301 299 296 295 300 302 303 305 306 308 310 311 312 313 315 315
308 307 309 310 309 308 308 307 307 308 307 306 307 306 306 307 304 306 305 305 302 301 301 297 295 293 296 298 299 301 304 305 307 308 308 309 309 309
309 308 307 308 309 310 309 307 307 307 307 307 306 305 304 305 304 304 304 304 302 299 299 296 293 295 294 295 294 295 301 303 304 304 304 305 305 305
308 308 308 307 307 308 309 309 307 306 307 305 305 305 304 305 305 303 304 301 301 299 298 296 293 295 295 295 293 294 299 299 299 299 301 301 301 302
306 307 307 307 306 306 306 307 308 307 307 305 303 303 302 302 302 302 301 298 300 298 297 297 294 296 295 294 292 292 296 296 294 294 294 295 296 297
305 306 306 307 306 306 305 306 307 307 306 304 303 302 301 299 298 298 296 296 298 299 297 296 294 294 295 293 291 290 293 295 295 295 293 292 292 294
302 304 305 306 306 306 305 304 304 305 305 303 300 299 298 298 296 296 297 296 294 295 295 294 293 292 291 291 291 290 289 294 294 294 292 290 289 289
301 302 304 304 304 305 305 304 304 302 303 301 299 297 297 297 296 296 295 294 291 293 294 292 292 292 292 292 292 290 290 292 293 292 291 288 288 288
300 302 303 303 303 303 303 302 302 301 301 301 300 299 298 297 296 295 294 294 293 293 293 292 292 292 292 291 292 291 290 293 293 292 290 288 288 287
300 301 302 303 303 303 302 302 301 300 300 300 300 300 299 298 296 295 293 293 293 293 292 290 291 292 291 291 291 290 289 294 293 291 290 288 287 288
299 300 300 300 300 300 300 300 300 299 299 299 299 299 299 299 297 295 293 291 290 291 291 291 291 291 290 291 290 289 289 294 292 292 290 289 288 288
298 299 299 299 299 298 297 297 297 297 298 299 299 298 297 296 296 296 295 292 291 291 292 291 290 290 288 290 289 289 290 291 292 291 291 290 289 288
297 297 298 299 298 298 297 296 297 297 297 298 298 298 297 296 295 295 294 294 291 291 291 291 289 290 288 288 288 287 288 290 291 290 289 290 289 287
296 297 297 297 297 297 297 297 296 297 297 297 296 297 296 296 295 294 294 293 292 291 291 291 289 287 287 289 288 288 287 287 288 288 287 286 286 286
295 295 295 295 295 296 296 296 297 297 296 296 296 297 297 296 295 294 293 292 291 290 290 289 289 287 286 287 288 288 287 286 286 286 285 285 285 285
295 294 294 294 294 295 295 295 295 296 296 295 295 295 295 295 295 294 293 292 290 290 289 287 286 286 285 285 285 285 286 286 286 286 285 285 285 287
296 296 295 294 293 294 294 294 295 294 294 294 294 294 294 294 294 294 292 290 288 288 287 287 285 285 285 284 285 285 285 285 285 286 286 285 287 286
295 295 294 294 293 293 293 293 293 292 292 292 292 293 292 292 292 291 291 289 288 286 287 287 287 284 283 285 285 284 284 285 285 285 285 284 284 287
294 293 293 294 294 293 292 291 292 291 291 291 291 291 292 291 291 290 289 289 288 287 287 288 286 284 281 282 287 286 284 284 285 285 285 283 283 285
293 293 293 294 294 293 292 291 290 290 290 290 290 291 291 291 290 290 290 289 288 288 287 287 286 285 285 284 286 287 286 285 285 285 284 283 283 283
290 291 291 292 292 292 292 291 290 289 290 290 290 290 290 290 290 290 290 290 289 288 287 287 287 287 286 286 285 285 285 285 284 284 283 282 281 282
289 289 290 290 291 291 292 291 290 289 289 289 289 290 290 290 290 290 290 289 289 289 288 288 287 286 286 285 283 284 284 284 284 283 282 282 281 280
290 289 289 289 289 290 291 291 290 289 289 289 289 289 290 289 290 289 289 289 289 289 288 287 286 285 285 284 284 284 283 283 282 281 282 282 283 283

GFSNE_925_thetae_177.txt.gz
Theta_e
309 308 307 308 310 309 307 307 307 307 304 306 307 311 309 305 306 306 305 305 305 303 301 301 301 298 298 300 301 304 306 308 310 311 312 313 315 316
309 309 308 307 308 310 309 307 307 307 307 305 305 307 306 305 304 304 303 304 304 303 300 299 299 297 297 297 298 301 304 307 307 308 309 310 311 312
307 309 308 308 307 307 309 308 307 306 307 306 306 306 306 305 303 305 303 303 303 301 299 298 298 295 295 296 295 299 302 303 304 304 305 305 306 307
304 305 306 307 307 307 307 308 308 308 306 305 305 305 305 304 302 302 302 302 301 300 299 297 297 295 295 295 294 295 298 299 299 300 301 301 302 303
303 303 304 305 306 307 306 306 306 308 308 305 305 305 304 303 301 300 299 298 296 295 299 298 296 296 296 294 293 291 296 296 295 295 296 297 298 299
301 301 303 304 305 306 306 306 305 306 306 306 304 304 304 302 300 298 297 295 295 295 296 297 295 294 294 294 292 291 291 295 295 295 293 292 293 294
298 299 301 302 304 305 305 306 305 304 304 304 303 302 300 299 298 297 296 296 295 294 293 294 294 292 292 291 292 291 290 292 294 294 292 290 289 289
297 298 299 301 303 303 304 304 305 304 303 301 301 299 299 300 299 297 295 294 291 293 293 293 293 292 292 292 291 292 290 289 293 293 292 289 288 289
297 298 300 301 302 303 303 303 303 303 302 302 300 300 300 300 299 297 295 294 293 293 293 293 292 292 292 292 291 292 291 290 294 292 291 289 288 288
297 298 299 300 300 301 302 302 302 301 301 300 300 300 300 300 299 297 295 294 293 293 292 291 291 291 291 291 291 291 291 290 294 292 291 290 288 288
297 298 298 298 299 299 298 299 299 299 299 298 299 299 299 299 299 297 293 292 290 291 292 291 291 291 291 291 290 291 290 290 293 292 292 290 289 289
297 297 297 298 299 298 297 297 296 297 297 297 298 299 298 298 298 298 297 292 291 291 293 291 290 290 288 289 289 289 290 291 293 292 292 291 291 290
296 296 296 297 297 297 297 297 297 297 296 297 297 297 297 297 296 295 295 295 293 293 292 290 289 290 289 288 288 288 288 289 290 291 291 291 291 290
295 295 295 295 295 295 296 296 297 297 297 297 296 296 296 296 297 296 296 295 294 293 292 291 290 289 287 287 287 287 288 287 288 289 289 289 287 287
296 295 294 294 294 294 294 295 295 295 296 296 296 295 295 295 295 295 295 294 293 292 292 291 290 290 288 287 287 288 288 287 287 286 286 285 285 285
296 295 295 295 295 294 294 294 295 295 295 295 295 294 295 295 295 295 295 294 292 292 291 289 289 288 288 287 286 286 285 286 286 286 286 285 285 285
295 295 294 293 294 294 294 294 294 294 294 292 292 292 292 293 293 294 293 292 290 290 290 290 289 288 285 285 285 285 285 285 286 285 285 285 286 285
294 293 293 293 292 292 293 293 293 292 292 292 292 292 292 291 292 292 292 291 289 289 289 289 287 284 284 285 285 286 285 285 286 285 285 285 285 286
293 292 291 292 292 292 293 293 292 291 291 291 291 291 291 291 291 291 291 290 289 289 289 288 286 284 282 283 286 286 286 286 285 285 285 285 285 286
291 290 290 290 291 291 291 292 292 291 290 290 290 290 290 290 290 290 290 289 289 289 288 287 286 285 284 281 284 287 287 286 285 285 285 285 284 284
291 290 290 289 289 289 291 291 291 291 290 290 289 289 289 290 290 290 290 290 290 289 287 286 287 287 286 285 284 286 286 286 285 285 283 283 282 281
288 288 288 289 288 288 289 290 290 291 290 290 289 289 289 289 289 290 290 290 290 290 289 289 288 287 286 285 283 284 285 285 285 284 283 283 282 278
288 288 288 288 288 288 288 289 289 289 290 290 289 289 289 289 289 289 289 289 289 289 289 288 287 285 285 285 284 284 284 284 283 283 283 282 282 282

GFSNE_925_thetae_183.txt.gz
Theta_e
305 306 307 308 308 308 307 307 307 308 307 305 305 306 309 309 307 306 305 304 302 303 302 301 298 297 298 300 299 299 304 305 306 308 310 313 316 318
302 303 304 304 305 307 307 307 306 306 308 306 306 306 306 306 306 305 305 304 302 302 301 300 299 297 297 298 298 295 299 302 305 305 307 309 312 313
301 301 301 302 302 303 304 305 306 306 307 307 307 306 306 305 305 306 306 303 300 300 300 300 299 298 296 297 297 293 297 298 300 302 304 306 307 309
301 301 301 301 301 302 302 303 304 305 306 306 306 306 306 306 305 306 306 305 300 298 297 296 296 298 296 296 296 293 295 295 296 297 299 302 304 305
300 300 300 299 299 299 300 301 303 304 304 304 304 305 305 305 305 305 305 304 301 298 296 295 295 297 297 295 296 295 291 294 295 294 294 297 299 301
298 298 298 297 297 297 298 300 301 302 303 302 302 302 303 303 303 302 303 303 301 300 297 295 295 294 295 294 296 295 292 291 294 295 293 292 293 295
298 297 297 296 297 298 299 300 301 302 302 301 300 301 301 301 301 302 300 300 300 300 298 296 293 293 294 293 292 294 293 291 292 294 293 291 290 291
297 297 297 297 296 298 299 300 301 302 302 300 300 300 301 301 301 300 299 297 294 296 294 293 294 295 293 293 292 292 291 292 290 294 293 292 290 289
297 297 297 297 297 298 298 299 300 301 301 302 301 301 301 301 300 299 297 296 296 297 295 294 295 295 294 293 292 291 291 291 291 294 293 292 290 289
297 297 296 297 297 297 297 298 298 298 298 299 300 301 300 300 300 299 298 297 296 295 293 292 293 293 293 293 292 291 291 291 292 293 293 292 290 289
296 296 296 296 296 297 298 298 297 297 297 296 296 296 297 297 297 298 296 293 291 293 294 292 292 292 293 293 291 291 291 292 291 291 293 292 291 290
297 296 296 296 295 296 297 297 296 296 296 297 297 297 296 297 297 298 297 295 293 294 293 291 291 291 289 288 289 290 291 292 291 292 294 293 292 291
296 297 296 296 295 294 295 294 294 294 295 295 295 295 296 296 296 296 297 297 296 295 295 292 291 290 290 288 288 288 288 289 290 291 293 293 292 292
296 295 294 296 295 294 294 294 294 294 294 294 294 295 296 296 295 295 295 295 295 295 295 293 292 292 289 288 288 288 288 287 288 288 289 291 293 291
291 292 292 295 295 294 293 294 293 293 293 293 293 293 293 294 293 294 295 295 295 295 294 294 293 292 291 289 289 288 288 287 287 287 287 287 287 287
291 292 292 293 293 292 292 292 292 292 292 292 293 293 293 292 291 291 292 293 293 294 293 293 292 292 290 289 288 288 288 288 286 286 286 286 286 286
291 291 292 293 292 291 290 291 291 290 291 292 293 293 292 292 291 291 291 291 291 291 292 292 291 290 289 289 288 289 288 288 287 286 285 285 287 287
290 290 291 292 291 290 289 289 290 290 291 291 292 291 290 290 291 291 291 291 290 290 290 290 289 286 285 287 288 287 287 287 287 286 285 285 286 288
289 289 290 290 290 289 288 288 289 289 289 290 291 291 290 290 289 290 290 290 290 290 290 290 288 285 280 280 286 287 286 286 286 286 285 284 285 286
288 288 288 288 288 288 288 288 288 288 288 289 290 290 290 289 289 289 289 290 290 290 290 289 288 286 284 283 284 286 286 286 286 285 285 285 285 285
287 286 286 286 286 286 286 287 287 287 288 288 289 289 289 289 289 289 289 289 290 290 290 289 289 289 288 286 285 285 286 286 286 285 284 283 283 282
287 287 287 287 287 287 287 287 287 287 287 287 287 288 288 289 289 289 289 289 289 290 290 290 289 288 286 285 283 284 285 285 285 284 283 284 283 276
286 285 285 285 286 286 286 286 287 287 288 287 287 287 287 288 288 289 288 289 289 289 289 290 289 287 286 286 285 284 283 284 284 284 284 284 284 284

GFSNE_925_thetae_189.txt.gz
Theta_e
300 300 300 301 301 302 303 304 305 306 307 306 306 306 306 306 306 306 306 306 305 306 304 301 301 301 299 296 295 298 299 299 304 306 308 312 315 317
299 299 300 300 300 300 300 302 303 304 305 304 305 305 306 306 306 305 306 306 305 305 305 302 300 300 300 297 296 296 298 296 298 303 307 309 311 314
298 298 299 299 300 300 300 300 301 301 302 302 303 304 304 305 305 306 306 306 305 305 305 304 299 298 298 298 297 296 295 295 295 296 304 306 307 310
297 297 297 297 298 298 298 297 298 298 299 300 301 302 302 303 304 305 305 305 305 305 305 304 301 298 296 298 297 296 295 294 295 295 297 300 304 305
297 297 297 297 297 297 297 296 296 296 297 298 299 300 301 301 302 303 303 303 304 304 304 304 301 298 296 297 297 296 295 293 293 295 294 295 297 298
297 297 297 297 297 297 296 296 296 296 297 298 298 299 299 300 300 301 301 301 301 302 302 302 300 300 297 297 298 297 295 294 292 294 294 294 295 295
295 297 297 297 297 296 296 297 297 296 296 296 297 298 298 298 298 301 299 300 300 300 300 301 302 301 299 295 298 296 295 294 293 292 294 292 293 293
294 295 297 297 296 296 296 296 296 297 297 296 297 299 299 299 299 299 299 298 299 299 297 297 297 295 294 293 293 294 293 294 294 292 293 293 291 290
293 294 296 297 296 296 295 296 296 297 297 297 298 298 299 298 298 298 298 297 297 298 297 295 298 298 298 297 295 293 292 292 294 293 295 293 292 290
291 293 296 296 296 296 295 295 295 295 296 296 295 295 295 295 296 296 296 296 296 297 296 293 295 294 296 295 294 293 292 291 292 293 294 294 292 291
290 291 293 296 296 296 295 296 295 294 294 294 294 294 295 295 296 296 295 293 294 294 295 292 293 293 294 294 294 293 292 291 292 293 294 294 292 291
289 289 290 291 293 296 296 296 295 294 293 293 293 293 294 294 294 295 295 294 294 294 295 293 293 292 293 289 289 290 292 291 293 294 294 294 292 291
291 291 291 291 291 292 294 295 295 294 294 293 293 293 293 294 293 294 295 294 294 294 296 294 292 291 292 292 291 289 289 292 294 295 294 294 293 292
290 290 291 290 291 292 293 293 293 294 293 293 292 292 292 292 292 293 293 294 294 293 294 295 292 292 291 289 290 289 288 289 292 292 292 293 294 293
290 290 291 291 291 291 290 292 292 293 292 291 291 291 290 290 292 293 292 292 292 293 293 293 293 293 292 291 292 291 290 288 287 288 290 291 293 292
290 289 290 290 290 290 290 290 291 291 290 290 290 290 289 290 292 292 292 291 291 291 291 292 293 291 290 290 291 291 289 289 288 287 287 287 287 288
290 290 289 289 289 289 288 288 290 289 288 288 288 288 289 289 290 291 291 290 290 290 290 291 292 291 289 289 288 289 289 289 289 288 287 286 286 286
290 289 289 288 288 288 287 288 288 288 287 287 287 288 288 288 289 290 290 289 290 290 290 290 290 288 287 288 289 289 289 289 289 289 288 287 287 288
289 289 288 288 287 287 287 286 286 286 286 286 286 287 287 287 288 289 289 289 289 289 289 289 289 288 289 290 288 288 287 287 287 286 286 285 286 288
287 287 287 287 286 286 285 285 285 285 285 286 286 286 286 286 287 287 288 289 289 289 289 289 289 288 289 289 288 287 287 287 286 285 284 284 285 286
286 286 286 286 286 286 286 285 285 285 286 286 286 286 286 286 287 287 287 289 289 289 289 289 289 289 289 287 287 286 287 287 286 286 285 284 285 284
285 285 285 285 286 285 285 285 284 284 284 284 285 285 286 287 287 286 286 287 288 289 289 289 289 289 287 286 288 286 285 286 285 285 285 285 284 285
284 285 285 286 286 285 285 284 284 284 284 285 284 285 285 286 287 286 286 286 287 288 288 289 289 288 287 286 287 285 284 284 284 284 284 284 284 284

GFSNE_925_thetae_192.txt.gz
Theta_e
302 302 302 303 303 304 304 305 305 305 306 305 306 307 307 307 308 309 308 307 306 306 305 305 305 302 301 301 299 297 296 300 302 305 308 311 315 317
300 300 301 301 302 302 303 303 304 304 304 303 304 304 305 305 306 306 306 306 306 306 306 305 305 304 300 300 299 297 295 297 298 302 306 308 311 314
299 299 300 300 300 300 301 302 302 302 304 303 302 303 303 304 304 305 306 306 306 306 305 305 305 305 301 299 300 298 297 295 295 295 303 305 308 310
298 299 299 299 299 300 300 300 300 300 300 301 300 301 301 302 303 303 303 304 305 305 304 304 304 304 302 299 298 298 297 295 294 294 295 301 304 306
297 297 298 298 299 299 299 299 299 299 299 299 300 300 300 301 301 301 302 303 304 303 303 303 304 304 303 299 297 299 297 296 294 294 294 295 298 302
296 296 297 297 298 298 299 299 298 298 298 299 299 299 299 299 299 299 300 302 303 302 301 301 301 301 302 299 298 300 298 297 295 294 294 294 295 297
294 295 295 296 296 296 297 297 298 298 298 296 296 296 297 299 299 299 300 299 300 300 300 300 301 301 301 301 300 299 300 298 296 294 296 293 294 294
293 293 293 294 295 296 296 296 296 297 297 297 297 297 297 297 298 298 298 298 299 299 298 300 297 297 298 297 298 298 299 297 296 294 296 294 292 293
291 291 292 293 294 296 296 296 296 296 296 297 297 297 297 297 298 298 297 297 297 298 297 296 298 299 299 295 293 294 294 294 294 295 295 295 293 291
291 291 291 292 293 294 296 296 297 297 296 296 295 295 295 295 295 296 297 296 295 295 295 293 296 297 298 296 295 296 294 293 292 295 294 296 293 292
290 290 291 292 292 293 294 295 296 296 296 295 293 293 293 294 294 296 295 294 294 295 295 293 294 294 296 295 294 294 292 292 292 295 296 296 294 292
289 289 289 291 292 293 293 293 293 293 294 294 294 294 294 293 293 294 293 294 294 294 295 293 294 294 296 292 290 291 292 292 292 294 296 295 294 293
289 289 289 290 291 291 292 292 292 293 293 294 294 293 293 293 292 292 292 292 292 293 295 293 292 292 292 295 291 292 290 292 293 295 295 295 294 292
288 288 289 290 291 291 291 291 292 292 292 293 293 293 293 292 292 290 291 291 292 291 292 292 292 292 291 292 294 291 289 290 293 295 295 295 295 293
289 289 290 290 290 290 290 291 290 291 292 292 292 292 291 291 289 290 291 292 292 291 291 291 291 292 292 291 293 290 289 288 289 293 293 293 294 294
289 289 290 290 290 290 290 290 289 289 290 291 290 290 289 289 289 289 291 291 291 290 291 291 291 290 290 291 291 292 291 291 289 287 288 290 292 293
289 290 290 290 290 289 289 288 288 289 290 289 288 287 288 288 288 288 289 290 290 290 290 290 290 290 289 289 289 289 290 290 290 288 287 287 287 288
289 289 290 290 290 289 288 288 288 288 288 288 287 287 287 288 288 287 288 289 290 290 290 290 289 288 288 289 289 289 289 289 289 289 289 289 289 288
289 289 290 290 289 288 288 287 287 286 286 286 286 287 287 287 287 287 287 287 288 289 289 289 289 289 291 292 289 289 289 288 288 287 287 287 289 289
288 288 288 288 288 287 287 287 286 286 285 286 286 287 287 286 287 287 287 288 288 289 290 289 289 289 290 291 291 288 287 287 287 288 286 285 286 286
287 287 286 286 286 286 287 287 286 286 285 285 285 286 286 287 287 287 287 287 287 288 289 290 289 289 289 288 288 288 288 287 287 287 286 286 286 285
286 286 286 286 286 286 286 286 286 285 284 284 284 285 285 285 286 287 287 287 287 287 288 288 289 289 288 287 289 289 287 286 286 285 285 286 286 288
285 285 285 285 285 286 286 286 285 285 285 285 285 284 285 285 285 285 287 287 287 287 287 288 289 288 288 288 288 289 286 285 284 284 284 285 285 285

GFSNE_925_thetae_198.txt.gz
Theta_e
300 300 300 300 301 301 301 302 303 303 302 303 304 304 303 303 303 302 303 304 305 305 305 305 305 305 305 305 307 307 307 306 304 303 303 304 306 310
298 298 299 299 299 299 300 300 301 301 301 302 302 302 302 302 301 301 301 302 303 304 304 305 306 306 305 305 305 306 306 306 305 303 302 303 305 308
297 297 297 297 297 298 298 299 299 300 300 300 301 300 300 300 300 300 300 301 302 302 302 303 302 304 304 304 304 305 305 305 305 303 302 301 304 305
295 295 296 296 296 296 296 297 298 298 299 299 299 299 299 299 300 300 300 299 297 299 299 298 301 303 303 302 302 302 304 304 303 303 301 299 300 302
293 293 294 294 294 295 295 295 296 296 295 297 298 298 299 299 299 298 296 296 297 298 298 300 299 300 301 301 300 300 301 303 303 301 300 297 295 297
291 291 291 292 293 293 293 292 293 294 295 296 297 297 297 296 296 296 296 296 297 296 297 297 297 298 298 299 300 301 301 301 302 301 300 297 295 296
288 288 290 291 292 292 292 292 293 294 295 296 295 296 296 295 296 296 296 295 296 297 297 297 297 298 299 299 299 299 300 301 300 300 301 298 296 295
288 288 289 290 291 291 291 291 292 294 295 295 295 295 295 295 295 295 295 295 294 295 296 296 296 296 296 296 297 298 299 298 299 300 300 298 297 294
287 288 289 289 289 290 290 290 291 292 292 293 294 294 294 294 294 294 294 294 293 294 294 295 295 295 295 295 296 297 298 299 296 299 300 299 297 295
287 288 288 288 289 289 289 289 291 291 290 292 293 293 293 293 294 293 293 293 293 293 293 294 293 294 294 294 295 296 296 297 296 298 301 299 296 295
287 288 288 288 288 289 289 290 291 291 290 290 291 291 291 292 292 292 293 290 291 291 291 293 293 293 293 294 295 295 296 296 295 296 298 298 296 296
287 288 288 288 288 289 290 291 291 290 290 290 291 290 289 290 292 292 292 291 291 291 291 291 291 291 293 295 293 293 294 294 294 293 296 297 297 296
287 288 288 288 289 289 290 290 290 290 290 290 291 290 290 291 292 292 292 291 291 290 290 291 290 290 291 292 293 294 290 292 292 292 293 296 297 296
288 288 288 288 289 290 290 290 290 291 291 290 290 290 289 290 291 291 290 288 288 288 288 291 290 290 290 290 291 292 292 291 292 292 294 294 297 296
288 288 288 289 290 290 290 290 290 290 290 290 289 289 288 289 289 287 286 288 287 287 288 289 290 289 289 289 290 290 291 292 291 292 293 295 295 295
288 288 288 289 289 289 289 289 290 290 289 288 288 287 288 288 288 287 286 286 287 287 286 288 289 289 288 288 289 289 290 291 291 290 292 295 294 295
289 289 288 288 288 288 288 289 290 289 288 288 287 286 286 286 285 286 286 286 287 287 286 286 288 289 288 288 287 288 289 290 290 291 290 292 292 293
288 288 287 287 287 287 288 288 289 289 288 287 287 286 285 285 285 286 286 286 286 286 286 286 288 288 289 289 289 288 288 289 289 290 289 288 289 291
287 287 287 287 287 287 288 288 288 288 287 287 287 286 285 285 285 286 286 286 286 286 286 287 287 288 289 289 289 290 289 289 289 289 289 288 288 289
286 286 286 287 287 287 287 287 287 286 286 286 287 286 285 284 285 285 286 286 286 286 287 287 287 288 288 287 288 289 289 289 288 288 288 288 288 289
285 285 285 285 285 285 286 286 286 286 286 286 286 285 285 284 284 284 284 284 285 286 286 287 286 286 287 287 287 288 288 288 288 288 288 287 286 286
285 286 285 284 285 285 285 286 285 285 285 286 286 286 285 285 284 284 285 285 285 285 285 287 286 286 287 287 287 288 288 288 287 286 287 287 286 285
285 285 285 284 284 284 284 284 284 284 284 286 286 286 285 285 284 284 284 284 284 284 285 286 286 286 286 286 287 288 288 287 286 285 285 285 286 286

GFSNE_925_thetae_201.txt.gz
Theta_e
298 298 298 298 298 298 298 299 300 300 299 300 301 301 300 301 300 300 300 299 300 301 301 302 304 304 304 305 306 307 307 307 307 308 307 305 304 306
296 296 296 296 296 296 297 297 297 298 298 299 299 300 300 299 299 299 299 299 300 300 301 302 302 302 300 303 305 304 306 306 307 307 307 305 304 304
292 293 293 294 295 294 295 295 295 296 297 297 297 297 297 298 298 298 299 299 298 297 297 298 299 299 300 302 303 303 302 303 305 306 307 306 304 303
290 290 291 291 292 293 293 294 294 295 295 294 294 294 295 296 298 298 297 296 296 296 296 298 298 299 299 299 299 302 301 301 301 304 305 305 303 302
288 288 289 290 290 291 292 293 293 292 292 293 294 295 295 295 296 296 295 295 295 295 296 296 297 298 296 298 299 299 300 300 300 301 303 304 303 300
288 287 287 288 289 290 291 291 292 291 292 293 294 294 294 293 294 295 295 295 294 293 293 294 294 296 297 296 296 298 299 300 300 300 302 303 302 299
288 288 287 286 287 288 290 292 291 292 292 293 293 293 293 293 293 294 294 294 294 293 293 294 293 293 294 294 296 296 296 297 298 298 300 302 302 299
288 288 287 286 287 288 289 289 289 292 293 292 292 292 292 292 293 293 293 293 292 293 293 292 293 293 293 294 294 295 295 296 297 298 299 300 301 299
289 288 287 286 287 288 288 288 289 289 290 291 291 291 291 292 292 292 293 292 292 292 291 292 291 292 292 292 293 294 294 295 296 297 298 297 301 300
289 288 287 287 287 287 288 288 289 289 289 290 290 289 290 292 291 291 292 292 292 291 291 291 291 291 292 291 291 293 294 295 296 296 297 297 300 299
288 288 287 287 287 288 290 289 289 290 290 290 289 290 291 291 290 291 291 291 290 290 290 291 291 291 289 289 292 294 293 293 296 297 296 296 299 299
288 288 287 287 288 288 289 289 289 290 290 290 290 290 290 289 289 290 291 290 291 290 291 290 290 289 289 290 291 291 292 292 292 292 293 294 297 298
288 287 287 287 288 288 289 289 290 290 290 290 290 290 289 289 288 289 291 290 289 288 288 288 288 288 289 289 290 290 291 291 292 291 292 293 294 298
289 288 288 288 288 289 289 290 290 290 290 290 290 289 289 288 287 288 288 286 286 287 287 286 287 288 289 289 289 290 289 290 291 291 291 292 292 295
287 288 288 289 289 289 288 289 289 289 289 290 289 288 287 287 287 287 286 286 286 286 286 286 286 287 288 288 288 289 289 289 289 290 291 292 293 293
287 288 288 288 288 288 288 288 287 287 288 289 288 288 287 286 285 285 285 286 286 286 285 285 286 286 288 288 288 288 288 289 289 289 291 291 293 292
288 288 288 288 287 287 287 287 287 287 287 288 288 287 287 286 285 284 284 285 286 286 285 285 286 286 287 288 288 288 287 288 288 289 290 291 292 292
287 288 288 287 287 286 286 286 286 287 287 288 288 287 287 286 285 285 285 285 285 285 285 285 286 286 286 287 288 288 288 288 289 288 289 289 290 291
286 286 286 286 286 286 286 286 286 287 287 287 286 287 287 286 286 284 284 285 285 285 286 286 286 286 285 286 288 289 288 288 288 288 288 288 288 289
285 285 285 285 285 286 285 285 285 285 286 286 286 285 286 286 285 283 283 284 284 284 285 285 285 286 285 285 285 287 288 287 288 288 288 288 288 288
285 285 285 285 285 285 284 284 285 285 285 286 286 286 286 286 285 284 284 284 285 284 283 284 284 286 286 285 286 287 287 288 288 287 287 287 286 287
284 285 285 285 285 284 284 284 284 284 283 283 284 284 285 286 285 284 284 284 284 284 284 284 285 286 285 284 285 286 286 287 288 286 286 287 286 285
284 284 284 284 284 284 284 284 284 284 284 284 284 285 285 285 285 284 284 284 284 284 284 284 285 285 285 285 285 286 286 287 287 286 285 285 286 286

GFSNE_925_thetae_204.txt.gz
Theta_e
296 296 295 295 295 296 296 296 297 296 296 297 297 297 295 294 293 294 297 297 298 299 300 300 299 298 299 300 301 302 303 306 306 306 307 308 308 309
292 291 292 292 292 293 293 294 294 295 294 295 296 295 292 292 292 293 296 297 298 297 296 297 297 299 300 300 302 302 303 305 306 305 305 307 308 308
289 289 289 290 290 290 291 291 292 293 293 294 292 292 292 293 293 292 296 297 294 294 295 297 298 298 298 299 300 299 300 301 304 304 303 304 306 307
290 289 288 288 288 288 288 289 291 292 293 291 291 292 292 293 293 292 293 294 294 294 294 296 296 296 298 298 298 298 298 299 299 301 302 302 303 306
290 289 288 288 287 287 287 288 289 290 291 291 291 292 293 293 292 292 292 292 293 292 292 292 293 295 295 296 297 297 297 297 297 299 300 301 303 304
289 289 288 288 287 287 287 288 290 291 291 291 291 292 293 292 291 291 292 292 293 293 293 292 293 293 292 293 293 293 293 295 297 297 299 299 299 301
289 289 288 288 287 287 289 290 290 291 291 291 292 291 291 290 290 291 292 292 292 292 292 292 292 291 291 291 292 292 293 295 295 296 297 299 298 298
289 288 288 288 288 287 287 288 289 290 290 291 290 290 290 289 289 290 291 291 291 290 292 292 291 291 290 290 291 292 293 293 294 295 296 297 298 298
289 289 288 288 288 287 286 286 287 287 289 290 291 291 290 289 289 290 290 290 290 290 290 290 291 290 291 290 290 291 291 293 294 294 295 296 297 298
288 288 288 288 288 287 287 287 288 289 289 289 289 290 290 290 290 290 290 290 290 290 289 290 290 290 290 289 288 290 292 293 293 293 293 296 296 297
287 287 288 287 287 287 288 288 288 288 289 289 289 290 290 290 290 290 289 289 289 289 289 289 290 289 288 287 288 289 291 291 292 292 292 293 295 296
288 288 288 288 288 288 288 288 288 288 289 289 289 289 290 290 289 289 287 288 289 288 289 289 287 287 287 287 288 288 289 289 290 290 291 291 292 294
287 287 287 287 288 288 289 289 289 289 289 290 289 289 290 289 289 287 287 289 288 287 286 287 286 285 286 286 288 288 289 289 289 289 290 290 291 292
287 287 287 287 288 289 289 289 289 289 288 289 288 288 289 289 287 286 286 286 285 286 286 286 286 286 285 286 287 288 288 288 288 288 289 290 291 292
287 287 288 288 288 288 288 288 288 288 288 287 287 287 288 288 287 286 285 284 284 285 286 285 285 285 284 286 287 288 288 288 288 289 288 289 290 291
286 287 287 288 288 288 287 287 287 287 287 287 287 287 288 287 287 286 285 284 284 284 285 285 285 285 285 286 287 287 288 288 288 288 288 289 290 291
286 286 286 286 287 286 286 286 286 286 286 286 286 286 286 288 287 286 285 284 284 284 285 285 285 285 285 285 286 287 287 287 288 288 288 288 289 290
286 286 286 286 285 285 285 285 285 286 286 286 286 286 287 287 286 286 285 284 284 284 284 284 285 285 285 285 286 287 287 287 288 288 288 288 288 289
284 284 285 285 285 284 285 285 285 285 285 285 285 285 286 286 286 286 285 283 283 283 284 284 284 284 283 284 284 286 286 287 287 287 287 287 287 287
284 284 284 284 284 284 284 284 284 284 284 284 284 285 285 285 285 286 285 284 283 283 284 284 284 284 282 285 285 284 286 287 287 287 287 287 287 287
283 283 283 284 284 284 284 284 284 284 284 284 283 283 283 284 284 285 285 284 284 284 282 282 284 284 284 284 282 284 285 286 287 286 286 286 286 286
283 283 283 283 284 283 283 283 283 283 284 284 284 283 284 284 284 283 284 282 283 283 283 283 284 284 284 283 283 283 284 285 285 287 286 286 286 283
283 282 282 282 282 282 283 283 283 282 283 283 284 284 284 284 284 284 284 283 283 283 283 283 284 283 283 283 283 284 284 285 285 286 286 285 285 286

GFSNE_925_thetae_210.txt.gz
Theta_e
291 291 291 290 290 290 291 291 293 291 290 291 295 291 291 290 289 290 290 290 289 292 294 295 295 296 297 297 297 297 298 299 299 300 300 300 302 303
289 289 288 288 288 288 287 287 288 290 290 292 290 289 290 290 289 290 289 287 286 288 292 293 294 295 295 295 296 296 296 297 297 298 298 298 299 299
290 290 289 288 288 288 287 287 286 287 289 288 288 289 290 289 289 289 287 287 286 286 287 292 293 294 294 295 295 295 294 294 295 295 296 296 297 298
290 289 288 288 288 288 287 287 287 286 287 288 289 289 289 289 289 288 288 287 286 286 289 291 291 292 293 294 295 294 293 293 294 294 295 295 295 297
289 288 288 288 288 288 288 287 287 287 287 288 288 288 289 288 289 288 288 288 287 286 288 287 289 291 292 293 291 292 292 292 293 294 293 294 294 295
288 288 288 288 288 288 288 288 288 287 287 287 287 288 288 288 289 288 289 289 287 286 288 288 288 287 288 289 290 290 290 292 292 292 292 293 293 295
288 288 288 288 288 288 290 290 289 288 287 287 287 287 288 288 288 288 289 289 288 288 288 288 287 287 287 287 288 289 290 290 290 291 292 292 294 294
287 287 287 287 287 287 287 287 289 289 288 288 287 287 289 288 288 288 289 288 288 288 288 288 287 287 287 288 289 289 288 289 289 290 291 292 292 292
287 287 287 286 286 287 287 287 287 287 288 288 288 288 287 288 288 289 289 289 288 288 288 287 287 287 287 287 286 287 287 288 289 289 290 290 291 292
286 287 287 287 287 286 287 288 288 288 288 288 288 287 288 288 289 290 289 289 289 288 287 286 286 287 287 286 286 286 286 286 286 288 288 290 290 290
287 287 287 287 286 288 288 288 288 288 288 288 288 288 288 289 289 289 289 287 288 287 286 286 287 286 285 285 285 285 285 285 285 286 288 289 289 290
287 287 286 286 287 287 288 288 288 288 288 288 289 289 289 288 288 287 286 287 287 286 286 286 286 285 285 285 285 284 284 284 285 285 287 288 289 289
286 286 286 285 287 288 288 288 288 288 288 288 288 288 288 287 287 286 286 286 287 286 286 285 284 284 284 284 284 284 284 284 284 285 286 287 288 289
286 286 285 286 287 287 287 287 287 288 287 286 286 286 286 286 286 286 286 286 287 286 286 284 283 283 283 284 283 284 284 284 284 285 286 286 287 287
285 285 286 286 286 286 285 286 286 284 284 285 285 285 285 285 285 285 286 286 286 286 286 284 284 283 283 282 282 283 284 284 284 285 285 286 286 287
285 285 286 285 284 284 284 284 284 284 284 284 284 284 284 284 284 284 284 285 286 286 286 285 283 283 283 283 283 282 284 283 284 284 285 286 287 287
286 285 284 283 283 283 283 283 283 283 283 283 283 283 284 284 284 284 285 285 284 285 285 285 283 283 283 283 281 283 283 284 284 284 285 286 286 286
286 284 283 282 282 282 282 282 282 283 283 283 283 282 282 283 283 284 284 285 284 284 284 284 283 283 282 282 282 283 284 284 284 284 284 285 286 286
284 282 282 282 282 282 282 283 283 282 282 282 282 282 282 282 283 283 283 283 283 283 284 284 283 281 274 278 282 283 284 283 284 283 284 284 285 286
282 282 282 282 282 282 282 281 281 281 281 281 281 282 282 282 282 282 282 282 282 282 282 283 283 282 279 278 281 282 283 283 283 283 283 284 285 286
281 282 282 282 282 281 281 281 280 280 281 282 281 281 281 281 281 282 282 283 283 283 281 282 283 282 282 282 281 282 282 283 283 283 283 284 285 285
281 280 280 281 281 280 280 279 280 280 280 281 281 280 280 281 281 282 282 282 282 281 280 282 283 282 282 282 282 282 282 282 282 283 285 285 285 284
281 279 279 279 279 279 279 279 280 279 280 280 280 280 280 280 279 280 281 282 282 282 282 282 282 281 280 280 280 280 280 281 281 283 284 285 285 284

GFSNE_925_thetae_216.txt.gz
Theta_e
293 294 294 294 294 293 293 293 293 294 294 293 293 293 290 290 291 290 291 291 289 290 291 291 291 292 293 293 293 294 295 295 296 297 296 296 297 297
291 291 292 291 291 291 291 291 291 292 293 291 291 290 290 290 290 290 290 289 290 290 289 290 291 291 292 292 292 293 293 294 294 295 294 294 295 295
290 290 291 290 290 290 290 290 290 290 291 290 290 290 289 289 289 289 289 290 289 289 287 286 289 290 291 291 291 291 292 292 292 292 292 293 293 294
290 290 290 289 290 289 289 289 289 289 289 289 289 289 289 289 289 289 289 289 289 289 289 290 289 290 291 291 290 290 291 291 291 291 292 292 292 292
290 290 289 289 290 290 289 289 289 289 290 289 289 289 288 288 289 289 289 289 289 288 289 288 289 290 290 290 290 290 290 290 290 291 291 290 291 291
288 288 288 289 289 290 290 290 289 290 290 289 289 289 289 288 288 288 289 288 288 289 289 289 289 289 290 289 289 288 288 290 289 289 290 290 290 291
288 288 287 287 287 288 289 290 290 289 289 289 289 289 289 289 289 288 288 288 288 288 289 289 289 289 289 289 288 288 288 289 289 289 289 289 289 289
288 287 287 287 286 286 286 286 288 288 289 289 289 289 289 289 288 288 288 288 289 289 289 289 289 288 289 288 288 288 288 288 288 288 288 288 288 288
287 287 287 287 286 287 287 287 288 288 288 288 288 288 288 288 288 288 289 289 289 289 288 288 288 288 288 288 288 288 287 287 287 287 287 287 287 288
287 287 287 287 287 287 288 288 288 288 288 288 288 288 288 289 289 289 289 289 289 288 288 289 288 288 287 287 287 286 286 286 286 287 286 287 287 287
287 287 287 287 287 287 288 288 288 288 287 287 288 288 289 289 288 288 288 288 288 288 287 287 287 287 287 287 286 286 286 286 286 286 286 286 287 287
287 287 286 286 287 287 288 288 288 287 287 288 287 287 287 287 287 287 287 287 287 287 286 287 287 287 287 286 286 286 285 285 285 285 286 286 286 286
287 287 286 285 286 287 288 287 287 287 287 286 286 286 286 286 286 286 286 286 285 285 286 286 286 287 286 286 286 285 285 284 284 285 285 286 286 286
287 286 286 285 286 287 286 286 286 286 286 285 285 285 285 285 285 284 284 284 284 284 284 285 285 286 286 286 286 285 284 284 284 284 285 285 285 286
286 286 286 286 286 285 284 285 284 285 285 284 284 284 284 283 283 283 283 283 283 284 285 285 284 285 285 285 284 284 284 284 284 285 285 285 285 285
285 286 285 286 285 284 283 284 284 284 283 283 282 282 282 282 282 282 282 283 284 284 284 284 284 284 284 284 284 284 284 284 284 284 284 284 285 285
286 286 286 285 285 284 284 283 283 283 283 283 282 282 282 281 282 282 282 283 283 283 283 284 284 283 283 283 283 283 284 284 284 284 284 284 284 285
286 286 285 285 284 284 283 283 283 283 282 282 282 282 281 282 281 282 283 283 283 283 283 283 284 283 283 284 284 284 283 284 284 284 284 284 284 284
285 285 284 284 283 283 283 283 282 282 281 281 281 281 281 281 282 282 282 282 282 282 283 283 283 282 284 285 284 283 283 283 283 283 284 283 283 284
283 283 283 283 283 283 283 283 282 282 281 281 281 281 281 281 281 281 281 281 281 282 283 284 284 283 283 284 283 282 282 282 283 283 283 283 283 283
282 282 282 282 282 282 281 281 280 280 280 280 280 281 280 281 282 281 281 281 281 281 282 283 283 283 282 281 282 283 283 282 282 282 282 282 283 284
281 281 281 281 281 280 280 280 280 280 279 279 280 280 280 280 280 280 281 281 281 281 282 282 282 283 282 281 281 281 282 282 281 282 282 283 283 285
280 280 280 280 280 280 279 279 278 279 279 279 278 278 279 279 280 280 280 280 281 282 281 282 282 282 281 282 282 282 282 282 282 282 283 284 284 284

GFSNE_925_thetae_219.txt.gz
Theta_e
297 295 295 295 295 294 294 294 294 297 297 295 294 294 291 290 291 290 290 291 291 291 291 291 291 292 292 292 293 293 293 293 294 294 295 294 295 295
293 293 293 292 292 292 292 292 292 293 294 293 292 291 291 290 290 289 290 290 290 291 290 291 291 291 291 292 292 292 292 292 292 293 293 293 293 293
291 291 291 291 291 291 290 291 291 291 292 292 291 291 290 290 289 289 289 290 290 290 290 290 290 291 290 291 291 291 291 291 291 291 292 292 292 293
291 291 290 291 291 291 291 291 290 291 290 291 290 290 290 289 289 289 289 289 289 289 289 290 290 290 290 291 291 291 291 290 290 290 291 291 291 291
290 290 290 290 290 290 290 290 290 290 290 290 290 290 290 289 289 289 289 289 289 289 289 289 290 290 290 290 291 290 290 289 289 290 290 290 290 290
290 290 289 290 291 291 291 290 290 290 290 290 290 290 290 290 289 289 289 289 289 289 289 289 290 289 289 289 290 289 289 289 289 289 289 289 289 289
289 289 289 289 289 289 290 290 290 290 290 290 290 290 290 290 290 289 289 289 289 289 289 289 289 289 289 289 289 289 289 289 289 289 289 289 289 288
288 288 288 287 287 287 286 286 286 288 288 289 289 289 289 289 289 289 289 289 289 289 289 289 289 288 288 288 288 288 288 288 288 288 288 288 288 288
288 288 288 287 287 287 287 288 288 289 289 289 289 289 289 289 289 289 289 289 289 289 289 289 288 289 288 288 288 288 288 287 287 287 287 287 287 287
288 288 287 288 288 287 288 288 289 288 288 288 288 288 288 289 289 289 289 289 289 288 288 289 288 288 287 288 287 287 287 287 287 287 287 287 287 287
287 287 287 288 288 286 288 288 288 288 288 287 288 288 288 288 288 288 288 288 288 287 287 287 287 287 286 287 287 287 287 287 287 286 286 286 287 287
287 287 286 287 287 287 288 288 288 288 287 287 287 286 286 286 286 286 287 287 286 286 285 285 286 286 286 286 286 286 286 286 286 285 285 286 286 286
287 287 287 286 286 287 288 288 287 287 287 287 286 286 286 286 286 286 285 285 284 284 284 284 284 284 285 286 286 286 286 286 285 284 284 285 286 286
287 287 287 286 286 287 287 286 286 286 286 286 286 286 286 285 285 283 283 283 283 283 283 284 284 284 285 285 285 285 285 284 284 284 284 284 285 285
287 287 286 286 287 286 286 285 285 284 285 285 284 284 283 283 282 282 282 282 282 283 284 284 285 284 283 284 284 284 284 284 284 284 284 284 284 284
286 286 286 286 286 286 285 284 284 284 284 283 282 282 282 282 282 282 282 281 282 283 283 283 283 283 284 283 283 284 284 284 284 284 284 284 284 284
286 286 286 286 286 285 285 284 284 283 284 284 283 282 282 281 281 281 281 282 283 283 283 282 282 283 283 283 282 283 283 284 284 284 284 283 283 284
286 286 286 286 285 285 284 284 284 283 283 282 281 281 281 281 281 281 282 282 282 282 282 282 283 283 283 283 283 284 284 284 284 283 283 283 283 283
285 286 285 285 285 284 284 283 283 283 282 281 281 281 281 281 282 282 282 282 281 281 281 282 283 284 283 282 283 283 283 283 282 282 283 283 283 283
285 285 284 284 283 283 283 283 283 282 281 281 280 281 281 281 281 281 282 281 281 281 281 281 282 283 283 283 282 282 282 282 282 282 282 282 282 282
284 283 283 283 283 283 282 281 281 280 280 280 280 279 280 280 280 280 280 281 281 281 280 280 281 282 282 282 281 282 281 281 282 282 282 282 283 283
282 282 282 282 282 281 280 280 280 279 279 279 279 279 279 279 279 279 280 281 281 280 280 281 281 281 282 282 282 282 282 282 282 282 282 283 283 284
281 281 281 281 280 280 280 279 279 278 278 279 279 278 278 278 278 278 279 280 280 280 281 281 281 282 282 282 282 282 281 282 281 282 281 282 283 284

GFSNE_925_thetae_222.txt.gz
Theta_e
304 302 299 297 297 297 298 297 296 294 293 294 294 296 293 291 290 290 289 290 291 291 292 292 292 292 292 292 292 293 293 293 293 293 293 293 293 294
299 296 295 293 292 292 292 292 293 293 291 293 292 291 291 290 290 289 289 289 289 291 291 291 291 291 291 291 292 292 292 292 292 292 292 292 292 293
294 293 292 291 290 290 290 290 290 291 291 291 291 290 290 290 289 289 289 289 289 289 290 290 291 291 291 291 291 292 292 291 291 291 291 292 292 292
292 291 291 290 290 290 290 290 291 290 290 290 290 290 290 290 289 289 289 289 289 289 289 290 290 290 291 291 291 291 291 290 290 290 290 290 291 291
291 291 291 290 290 290 289 290 290 290 290 290 290 290 290 290 290 289 289 289 289 288 289 289 289 290 290 290 290 290 290 289 289 289 289 289 289 290
290 290 290 290 290 290 290 290 290 290 290 290 290 290 290 289 289 289 289 289 289 289 288 289 289 289 289 289 289 289 289 289 289 289 289 289 289 289
290 290 290 290 290 290 290 290 291 290 290 290 289 289 289 289 289 289 288 288 288 289 289 289 289 289 288 287 288 288 289 289 289 289 288 289 289 288
289 289 289 288 288 287 287 288 288 288 288 288 288 289 288 288 289 289 289 289 288 289 289 289 288 288 287 288 288 288 288 289 288 288 288 288 288 288
289 288 288 287 287 287 287 287 287 288 289 288 288 288 288 288 288 289 288 289 289 288 289 288 288 288 287 287 287 288 288 288 288 288 288 288 287 287
289 288 288 287 287 287 287 288 289 289 288 288 288 288 288 287 288 288 288 288 287 287 287 286 286 286 286 286 285 286 287 288 287 287 288 287 287 287
287 287 287 288 288 287 287 288 288 288 288 288 288 288 288 288 287 287 287 286 286 286 285 285 286 285 284 285 285 286 287 287 287 287 287 286 286 286
287 287 287 287 288 287 286 288 288 288 288 287 287 287 287 285 286 286 285 285 284 284 284 284 284 283 284 284 285 285 285 285 286 286 285 285 285 285
287 287 287 287 287 287 288 288 288 287 287 287 286 286 285 286 285 285 284 283 282 282 283 283 283 283 283 284 284 284 284 285 284 284 284 284 284 285
287 287 287 287 286 287 288 287 287 286 286 285 285 285 285 284 284 283 282 282 282 282 282 282 283 284 284 284 283 283 283 283 284 284 284 283 283 284
287 287 287 286 286 287 287 286 285 284 284 285 284 283 283 282 282 282 281 281 281 281 282 283 283 282 282 283 283 283 283 282 283 283 284 283 283 283
287 287 286 286 286 286 286 285 284 284 284 283 283 282 282 282 282 281 281 281 281 281 281 281 282 281 282 282 283 283 282 282 282 283 284 283 282 282
286 286 286 286 286 285 285 285 284 284 283 283 283 282 282 281 281 280 281 281 281 282 281 281 281 281 282 283 283 282 282 282 283 283 283 282 282 282
286 286 286 286 286 285 285 284 284 284 283 283 282 281 281 280 280 281 281 281 282 281 281 280 280 281 281 282 282 283 283 283 282 282 282 281 281 281
286 285 286 286 285 285 284 284 283 283 283 282 282 282 281 280 280 281 280 280 281 281 280 280 280 280 280 281 282 282 282 282 281 281 281 281 281 281
285 285 285 285 284 284 283 283 283 283 282 281 280 280 280 280 280 280 280 280 280 280 281 280 280 280 280 281 281 281 282 281 281 281 281 281 281 282
284 284 284 283 283 283 283 282 282 281 280 280 280 280 279 279 279 279 279 279 280 280 280 279 280 280 281 281 281 281 281 281 281 281 281 281 282 282
283 283 283 282 282 282 282 281 280 280 279 279 278 278 279 279 278 278 278 278 279 279 279 279 280 280 280 280 280 281 281 281 281 281 281 281 281 282
282 282 282 281 281 281 280 280 279 278 278 278 278 278 278 277 278 277 277 278 278 279 279 279 280 280 280 280 281 281 281 281 280 280 280 280 281 282